Time,TemperatureF,DewpointF,PressureIn,WindDirection,WindDirectionDegrees,WindSpeedMPH,WindSpeedGustMPH,Humidity,HourlyPrecipIn,Conditions,Clouds,dailyrainin,SoftwareType,DateUTC
2013-07-23 00:02:00,69.3,60.6,30.03,WSW,248,1.8,4.9,74,0.00,,,0.00,WUHU216HW,2013-07-23 07:02:00,
2013-07-23 00:03:00,69.3,60.6,30.03,WSW,248,3.6,4.9,74,0.00,,,0.00,WUHU216HW,2013-07-23 07:03:00,
2013-07-23 00:04:00,69.5,60.8,30.03,SW,225,2.7,4.9,74,0.00,,,0.00,WUHU216HW,2013-07-23 07:04:00,
2013-07-23 00:07:00,69.5,60.8,30.04,West,270,2.7,4.7,74,0.00,,,0.00,WUHU216HW,2013-07-23 07:07:00,
2013-07-23 00:08:00,69.5,60.8,30.03,WSW,248,2.0,4.7,74,0.00,,,0.00,WUHU216HW,2013-07-23 07:08:00,
2013-07-23 00:09:00,69.5,60.8,30.03,WSW,248,1.1,4.7,74,0.00,,,0.00,WUHU216HW,2013-07-23 07:09:00,
2013-07-23 00:12:00,69.5,60.8,30.03,WSW,248,2.9,3.6,74,0.00,,,0.00,WUHU216HW,2013-07-23 07:12:00,
2013-07-23 00:13:00,69.5,60.8,30.03,WSW,248,2.0,3.4,74,0.00,,,0.00,WUHU216HW,2013-07-23 07:13:00,
2013-07-23 00:14:00,69.5,60.8,30.03,WSW,248,2.5,3.4,74,0.00,,,0.00,WUHU216HW,2013-07-23 07:14:00,
2013-07-23 00:17:00,69.5,60.8,30.03,SW,225,2.5,3.4,74,0.00,,,0.00,WUHU216HW,2013-07-23 07:17:00,
2013-07-23 00:18:00,69.5,60.8,30.03,WSW,248,2.5,3.4,74,0.00,,,0.00,WUHU216HW,2013-07-23 07:18:00,
2013-07-23 00:19:00,69.5,60.8,30.03,SW,225,1.6,3.4,74,0.00,,,0.00,WUHU216HW,2013-07-23 07:19:00,
2013-07-23 00:22:00,69.5,60.8,30.03,SW,225,2.5,3.4,74,0.00,,,0.00,WUHU216HW,2013-07-23 07:22:00,
2013-07-23 00:23:00,69.5,60.8,30.03,SW,225,1.8,3.4,74,0.00,,,0.00,WUHU216HW,2013-07-23 07:23:00,
2013-07-23 00:24:00,69.5,60.8,30.03,SW,225,1.1,3.4,74,0.00,,,0.00,WUHU216HW,2013-07-23 07:24:00,
2013-07-23 00:25:00,69.5,60.8,30.03,SSW,203,0.7,3.4,74,0.00,,,0.00,WUHU216HW,2013-07-23 07:25:00,
2013-07-23 00:27:00,69.5,60.8,30.03,SW,225,1.6,3.4,74,0.00,,,0.00,WUHU216HW,2013-07-23 07:27:00,
2013-07-23 00:29:00,69.5,60.8,30.03,WSW,248,3.1,3.4,74,0.00,,,0.00,WUHU216HW,2013-07-23 07:29:00,
2013-07-23 00:30:00,69.5,60.8,30.03,WSW,248,2.5,3.4,74,0.00,,,0.00,WUHU216HW,2013-07-23 07:30:00,
2013-07-23 00:32:00,69.3,60.6,30.03,SW,225,1.8,3.4,74,0.00,,,0.00,WUHU216HW,2013-07-23 07:32:00,
2013-07-23 00:34:00,69.3,60.6,30.03,SW,225,1.8,3.4,74,0.00,,,0.00,WUHU216HW,2013-07-23 07:34:00,
2013-07-23 00:35:00,69.3,60.6,30.03,WSW,248,1.8,3.4,74,0.00,,,0.00,WUHU216HW,2013-07-23 07:35:00,
2013-07-23 00:38:00,69.3,60.6,30.03,SW,225,0.4,3.4,74,0.00,,,0.00,WUHU216HW,2013-07-23 07:38:00,
2013-07-23 00:39:00,69.3,60.6,30.03,SW,225,0.4,3.4,74,0.00,,,0.00,WUHU216HW,2013-07-23 07:39:00,
2013-07-23 00:40:00,69.3,60.6,30.03,SW,225,0.7,2.9,74,0.00,,,0.00,WUHU216HW,2013-07-23 07:40:00,
2013-07-23 00:41:00,69.3,60.6,30.03,SW,225,0.9,2.9,74,0.00,,,0.00,WUHU216HW,2013-07-23 07:41:00,
2013-07-23 00:43:00,69.3,60.6,30.03,SSW,203,2.5,2.9,74,0.00,,,0.00,WUHU216HW,2013-07-23 07:43:00,
2013-07-23 00:44:00,69.3,60.6,30.03,South,180,2.0,2.9,74,0.00,,,0.00,WUHU216HW,2013-07-23 07:44:00,
2013-07-23 00:45:00,69.3,60.6,30.03,SSW,203,2.2,2.5,74,0.00,,,0.00,WUHU216HW,2013-07-23 07:45:00,
2013-07-23 00:46:00,69.3,60.6,30.03,SSW,203,1.8,2.5,74,0.00,,,0.00,WUHU216HW,2013-07-23 07:46:00,
2013-07-23 00:49:00,69.3,60.6,30.03,SSW,203,1.1,2.5,74,0.00,,,0.00,WUHU216HW,2013-07-23 07:49:00,
2013-07-23 00:50:00,69.5,60.8,30.03,SSW,203,0.9,2.5,74,0.00,,,0.00,WUHU216HW,2013-07-23 07:50:00,
2013-07-23 00:51:00,69.5,60.8,30.03,SW,225,0.0,2.5,74,0.00,,,0.00,WUHU216HW,2013-07-23 07:51:00,
2013-07-23 00:54:00,69.5,60.8,30.03,WSW,248,0.0,2.2,74,0.00,,,0.00,WUHU216HW,2013-07-23 07:54:00,
2013-07-23 00:55:00,69.5,60.8,30.03,WSW,248,0.0,2.2,74,0.00,,,0.00,WUHU216HW,2013-07-23 07:55:00,
2013-07-23 00:56:00,69.5,60.8,30.03,WSW,248,0.0,2.2,74,0.00,,,0.00,WUHU216HW,2013-07-23 07:56:00,
2013-07-23 01:00:00,69.3,61.0,30.03,West,270,1.1,1.1,75,0.00,,,0.00,WUHU216HW,2013-07-23 08:00:00,
2013-07-23 01:01:00,69.3,61.0,30.03,West,270,1.8,1.8,75,0.00,,,0.00,WUHU216HW,2013-07-23 08:01:00,
2013-07-23 01:05:00,69.3,61.4,30.03,NW,315,1.1,1.8,76,0.00,,,0.00,WUHU216HW,2013-07-23 08:05:00,
2013-07-23 01:06:00,69.3,61.4,30.03,NW,315,1.1,1.8,76,0.00,,,0.00,WUHU216HW,2013-07-23 08:06:00,
2013-07-23 01:10:00,69.3,61.0,30.03,West,270,0.4,1.8,75,0.00,,,0.00,WUHU216HW,2013-07-23 08:10:00,
2013-07-23 01:11:00,69.3,61.0,30.03,WNW,293,1.6,2.5,75,0.00,,,0.00,WUHU216HW,2013-07-23 08:11:00,
2013-07-23 01:15:00,69.5,60.8,30.03,WSW,248,0.7,2.5,74,0.00,,,0.00,WUHU216HW,2013-07-23 08:15:00,
2013-07-23 01:16:00,69.5,60.8,30.03,West,270,1.1,2.5,74,0.00,,,0.00,WUHU216HW,2013-07-23 08:16:00,
2013-07-23 01:17:00,69.5,60.8,30.02,West,270,0.0,2.5,74,0.00,,,0.00,WUHU216HW,2013-07-23 08:17:00,
2013-07-23 01:20:00,69.5,60.8,30.02,West,270,1.1,2.5,74,0.00,,,0.00,WUHU216HW,2013-07-23 08:20:00,
2013-07-23 01:21:00,69.5,60.8,30.02,West,270,2.7,2.7,74,0.00,,,0.00,WUHU216HW,2013-07-23 08:21:00,
2013-07-23 01:22:00,69.5,60.8,30.02,West,270,1.8,2.7,74,0.00,,,0.00,WUHU216HW,2013-07-23 08:22:00,
2013-07-23 01:25:00,69.5,60.8,30.02,WSW,248,0.0,2.7,74,0.00,,,0.00,WUHU216HW,2013-07-23 08:25:00,
2013-07-23 01:26:00,69.5,60.8,30.02,WSW,248,0.0,2.7,74,0.00,,,0.00,WUHU216HW,2013-07-23 08:26:00,
2013-07-23 01:27:00,69.5,60.8,30.02,WSW,248,0.0,2.7,74,0.00,,,0.00,WUHU216HW,2013-07-23 08:27:00,
2013-07-23 01:30:00,69.5,60.8,30.02,South,180,1.1,2.7,74,0.00,,,0.00,WUHU216HW,2013-07-23 08:30:00,
2013-07-23 01:31:00,69.5,60.8,30.02,SSW,203,1.6,1.8,74,0.00,,,0.00,WUHU216HW,2013-07-23 08:31:00,
2013-07-23 01:32:00,69.5,60.8,30.02,SSW,203,1.1,1.8,74,0.00,,,0.00,WUHU216HW,2013-07-23 08:32:00,
2013-07-23 01:35:00,69.5,60.8,30.02,SSW,203,0.9,1.8,74,0.00,,,0.00,WUHU216HW,2013-07-23 08:35:00,
2013-07-23 01:37:00,69.5,61.1,30.02,SSW,203,0.4,1.8,75,0.00,,,0.00,WUHU216HW,2013-07-23 08:37:00,
2013-07-23 01:40:00,69.3,61.0,30.02,SSW,203,0.0,1.8,75,0.00,,,0.00,WUHU216HW,2013-07-23 08:40:00,
2013-07-23 01:42:00,69.3,61.0,30.02,SSW,203,0.0,1.8,75,0.00,,,0.00,WUHU216HW,2013-07-23 08:42:00,
2013-07-23 01:45:00,69.1,60.9,30.02,SW,225,0.0,1.1,75,0.00,,,0.00,WUHU216HW,2013-07-23 08:45:00,
2013-07-23 01:47:00,69.1,60.9,30.02,SSW,203,0.7,1.1,75,0.00,,,0.00,WUHU216HW,2013-07-23 08:47:00,
2013-07-23 01:48:00,69.1,60.9,30.02,SSW,203,0.9,1.1,75,0.00,,,0.00,WUHU216HW,2013-07-23 08:48:00,
2013-07-23 01:51:00,68.9,60.7,30.02,SW,225,0.0,1.1,75,0.00,,,0.00,WUHU216HW,2013-07-23 08:51:00,
2013-07-23 01:52:00,68.9,61.0,30.02,WSW,248,0.9,1.1,76,0.00,,,0.00,WUHU216HW,2013-07-23 08:52:00,
2013-07-23 01:53:00,68.9,61.0,30.02,WSW,248,0.9,1.1,76,0.00,,,0.00,WUHU216HW,2013-07-23 08:53:00,
2013-07-23 01:56:00,68.8,60.8,30.02,WSW,248,0.9,1.8,76,0.00,,,0.00,WUHU216HW,2013-07-23 08:56:00,
2013-07-23 01:58:00,68.8,60.8,30.02,WSW,248,0.0,1.8,76,0.00,,,0.00,WUHU216HW,2013-07-23 08:58:00,
2013-07-23 01:59:00,68.8,60.5,30.02,WSW,248,0.0,1.8,75,0.00,,,0.00,WUHU216HW,2013-07-23 08:59:00,
2013-07-23 02:01:00,68.8,60.8,30.02,WSW,248,0.7,1.8,76,0.00,,,0.00,WUHU216HW,2013-07-23 09:01:00,
2013-07-23 02:03:00,68.8,60.8,30.02,West,270,0.0,1.8,76,0.00,,,0.00,WUHU216HW,2013-07-23 09:03:00,
2013-07-23 02:04:00,68.6,60.8,30.02,West,270,3.4,3.4,76,0.00,,,0.00,WUHU216HW,2013-07-23 09:04:00,
2013-07-23 02:06:00,68.6,60.8,30.02,WSW,248,2.0,4.0,76,0.00,,,0.00,WUHU216HW,2013-07-23 09:06:00,
2013-07-23 02:08:00,68.6,60.8,30.02,West,270,2.0,4.0,76,0.00,,,0.00,WUHU216HW,2013-07-23 09:08:00,
2013-07-23 02:09:00,68.6,60.8,30.02,WSW,248,3.4,4.7,76,0.00,,,0.00,WUHU216HW,2013-07-23 09:09:00,
2013-07-23 02:12:00,68.4,60.6,30.02,SW,225,2.5,4.7,76,0.00,,,0.00,WUHU216HW,2013-07-23 09:12:00,
2013-07-23 02:13:00,68.4,60.6,30.02,SW,225,0.7,4.7,76,0.00,,,0.00,WUHU216HW,2013-07-23 09:13:00,
2013-07-23 02:15:00,68.4,60.6,30.02,SW,225,0.2,4.7,76,0.00,,,0.00,WUHU216HW,2013-07-23 09:15:00,
2013-07-23 02:17:00,68.4,60.6,30.02,WSW,248,0.9,4.7,76,0.00,,,0.00,WUHU216HW,2013-07-23 09:17:00,
2013-07-23 02:18:00,68.4,60.6,30.02,WSW,248,2.9,4.7,76,0.00,,,0.00,WUHU216HW,2013-07-23 09:18:00,
2013-07-23 02:19:00,68.4,60.9,30.02,West,270,3.1,4.7,77,0.00,,,0.00,WUHU216HW,2013-07-23 09:19:00,
2013-07-23 02:20:00,68.4,60.9,30.02,WSW,248,2.7,4.0,77,0.00,,,0.00,WUHU216HW,2013-07-23 09:20:00,
2013-07-23 02:22:00,68.4,60.6,30.02,SW,225,1.1,3.6,76,0.00,,,0.00,WUHU216HW,2013-07-23 09:22:00,
2013-07-23 02:23:00,68.4,60.6,30.02,WSW,248,0.9,3.6,76,0.00,,,0.00,WUHU216HW,2013-07-23 09:23:00,
2013-07-23 02:24:00,68.4,60.6,30.02,West,270,1.1,3.6,76,0.00,,,0.00,WUHU216HW,2013-07-23 09:24:00,
2013-07-23 02:25:00,68.4,60.6,30.02,West,270,1.3,3.6,76,0.00,,,0.00,WUHU216HW,2013-07-23 09:25:00,
2013-07-23 02:27:00,68.4,60.6,30.02,WSW,248,1.8,3.6,76,0.00,,,0.00,WUHU216HW,2013-07-23 09:27:00,
2013-07-23 02:29:00,68.4,60.6,30.02,WSW,248,1.6,3.6,76,0.00,,,0.00,WUHU216HW,2013-07-23 09:29:00,
2013-07-23 02:30:00,68.4,60.6,30.02,WSW,248,1.1,2.9,76,0.00,,,0.00,WUHU216HW,2013-07-23 09:30:00,
2013-07-23 02:33:00,68.4,60.6,30.01,SW,225,0.9,2.9,76,0.00,,,0.00,WUHU216HW,2013-07-23 09:33:00,
2013-07-23 02:34:00,68.4,60.6,30.01,SW,225,0.7,2.9,76,0.00,,,0.00,WUHU216HW,2013-07-23 09:34:00,
2013-07-23 02:35:00,68.4,60.6,30.01,SW,225,2.9,2.9,76,0.00,,,0.00,WUHU216HW,2013-07-23 09:35:00,
2013-07-23 02:38:00,68.4,60.6,30.01,SW,225,2.5,4.3,76,0.00,,,0.00,WUHU216HW,2013-07-23 09:38:00,
2013-07-23 02:39:00,68.4,60.6,30.01,SW,225,2.5,4.3,76,0.00,,,0.00,WUHU216HW,2013-07-23 09:39:00,
2013-07-23 02:40:00,68.4,60.6,30.01,SW,225,1.1,4.3,76,0.00,,,0.00,WUHU216HW,2013-07-23 09:40:00,
2013-07-23 02:41:00,68.4,60.6,30.01,WSW,248,1.8,4.3,76,0.00,,,0.00,WUHU216HW,2013-07-23 09:41:00,
2013-07-23 02:43:00,68.4,60.6,30.01,WSW,248,1.1,4.3,76,0.00,,,0.00,WUHU216HW,2013-07-23 09:43:00,
2013-07-23 02:44:00,68.4,60.6,30.01,WSW,248,1.1,4.3,76,0.00,,,0.00,WUHU216HW,2013-07-23 09:44:00,
2013-07-23 02:45:00,68.4,60.9,30.01,WSW,248,1.8,4.3,77,0.00,,,0.00,WUHU216HW,2013-07-23 09:45:00,
2013-07-23 02:46:00,68.4,60.9,30.01,SW,225,2.7,4.3,77,0.00,,,0.00,WUHU216HW,2013-07-23 09:46:00,
2013-07-23 02:49:00,68.4,60.6,30.01,WSW,248,2.2,3.6,76,0.00,,,0.00,WUHU216HW,2013-07-23 09:49:00,
2013-07-23 02:50:00,68.4,60.6,30.01,WSW,248,1.8,3.6,76,0.00,,,0.00,WUHU216HW,2013-07-23 09:50:00,
2013-07-23 02:51:00,68.4,60.6,30.01,WSW,248,2.7,3.6,76,0.00,,,0.00,WUHU216HW,2013-07-23 09:51:00,
2013-07-23 02:54:00,68.2,60.4,30.01,SW,225,3.4,4.0,76,0.00,,,0.00,WUHU216HW,2013-07-23 09:54:00,
2013-07-23 02:55:00,68.2,60.4,30.01,SW,225,4.3,4.3,76,0.00,,,0.00,WUHU216HW,2013-07-23 09:55:00,
2013-07-23 02:56:00,68.2,60.4,30.01,SW,225,3.4,4.3,76,0.00,,,0.00,WUHU216HW,2013-07-23 09:56:00,
2013-07-23 02:59:00,68.2,60.4,30.01,WSW,248,3.6,4.3,76,0.00,,,0.00,WUHU216HW,2013-07-23 09:59:00,
2013-07-23 03:00:00,68.0,60.2,30.01,SW,225,4.0,4.5,76,0.00,,,0.00,WUHU216HW,2013-07-23 10:00:00,
2013-07-23 03:01:00,68.0,60.2,30.01,WSW,248,3.6,4.7,76,0.00,,,0.00,WUHU216HW,2013-07-23 10:01:00,
2013-07-23 03:04:00,68.0,60.2,30.01,SW,225,2.9,4.7,76,0.00,,,0.00,WUHU216HW,2013-07-23 10:04:00,
2013-07-23 03:05:00,68.0,60.2,30.01,SW,225,2.9,4.7,76,0.00,,,0.00,WUHU216HW,2013-07-23 10:05:00,
2013-07-23 03:06:00,68.0,60.2,30.01,WSW,248,3.1,4.7,76,0.00,,,0.00,WUHU216HW,2013-07-23 10:06:00,
2013-07-23 03:09:00,68.0,60.2,30.02,WSW,248,3.4,4.7,76,0.00,,,0.00,WUHU216HW,2013-07-23 10:09:00,
2013-07-23 03:10:00,68.0,60.2,30.01,SW,225,2.7,4.0,76,0.00,,,0.00,WUHU216HW,2013-07-23 10:10:00,
2013-07-23 03:11:00,68.0,60.2,30.01,SW,225,2.5,4.0,76,0.00,,,0.00,WUHU216HW,2013-07-23 10:11:00,
2013-07-23 03:14:00,68.0,60.2,30.01,WSW,248,1.8,3.8,76,0.00,,,0.00,WUHU216HW,2013-07-23 10:14:00,
2013-07-23 03:15:00,68.0,60.2,30.01,WSW,248,2.7,3.8,76,0.00,,,0.00,WUHU216HW,2013-07-23 10:15:00,
2013-07-23 03:16:00,68.0,60.2,30.02,WSW,248,2.0,3.8,76,0.00,,,0.00,WUHU216HW,2013-07-23 10:16:00,
2013-07-23 03:17:00,67.9,60.0,30.02,SW,225,1.8,3.8,76,0.00,,,0.00,WUHU216HW,2013-07-23 10:17:00,
2013-07-23 03:20:00,67.9,60.4,30.02,WSW,248,1.1,3.4,77,0.00,,,0.00,WUHU216HW,2013-07-23 10:20:00,
2013-07-23 03:21:00,67.9,60.4,30.02,WSW,248,0.4,3.4,77,0.00,,,0.00,WUHU216HW,2013-07-23 10:21:00,
2013-07-23 03:22:00,67.9,60.4,30.02,SW,225,2.2,3.4,77,0.00,,,0.00,WUHU216HW,2013-07-23 10:22:00,
2013-07-23 03:25:00,67.9,60.4,30.01,West,270,2.5,3.4,77,0.00,,,0.00,WUHU216HW,2013-07-23 10:25:00,
2013-07-23 03:26:00,67.9,60.4,30.01,West,270,2.5,3.4,77,0.00,,,0.00,WUHU216HW,2013-07-23 10:26:00,
2013-07-23 03:27:00,67.9,60.4,30.02,WSW,248,2.7,3.4,77,0.00,,,0.00,WUHU216HW,2013-07-23 10:27:00,
2013-07-23 03:31:00,67.9,60.4,30.01,West,270,1.6,3.4,77,0.00,,,0.00,WUHU216HW,2013-07-23 10:31:00,
2013-07-23 03:32:00,67.9,60.4,30.01,WSW,248,1.8,3.4,77,0.00,,,0.00,WUHU216HW,2013-07-23 10:32:00,
2013-07-23 03:36:00,67.9,60.4,30.02,WSW,248,1.8,2.9,77,0.00,,,0.00,WUHU216HW,2013-07-23 10:36:00,
2013-07-23 03:37:00,67.9,60.4,30.02,West,270,2.5,2.9,77,0.00,,,0.00,WUHU216HW,2013-07-23 10:37:00,
2013-07-23 03:41:00,67.7,60.2,30.01,WSW,248,2.5,2.9,77,0.00,,,0.00,WUHU216HW,2013-07-23 10:41:00,
2013-07-23 03:42:00,67.7,60.2,30.01,WSW,248,3.4,3.4,77,0.00,,,0.00,WUHU216HW,2013-07-23 10:42:00,
2013-07-23 03:46:00,67.7,60.2,30.01,WSW,248,3.6,4.0,77,0.00,,,0.00,WUHU216HW,2013-07-23 10:46:00,
2013-07-23 03:47:00,67.7,60.2,30.01,WSW,248,4.3,4.3,77,0.00,,,0.00,WUHU216HW,2013-07-23 10:47:00,
2013-07-23 03:51:00,67.7,60.2,30.01,WSW,248,3.1,4.7,77,0.00,,,0.00,WUHU216HW,2013-07-23 10:51:00,
2013-07-23 03:52:00,67.7,60.2,30.01,WSW,248,2.5,4.7,77,0.00,,,0.00,WUHU216HW,2013-07-23 10:52:00,
2013-07-23 03:56:00,67.7,60.2,30.01,WSW,248,2.7,4.7,77,0.00,,,0.00,WUHU216HW,2013-07-23 10:56:00,
2013-07-23 03:57:00,67.9,60.4,30.01,WSW,248,2.9,4.7,77,0.00,,,0.00,WUHU216HW,2013-07-23 10:57:00,
2013-07-23 04:01:00,67.9,60.9,30.01,WSW,248,2.5,3.6,78,0.00,,,0.00,WUHU216HW,2013-07-23 11:01:00,
2013-07-23 04:02:00,67.9,60.9,30.01,SW,225,2.7,3.6,78,0.00,,,0.00,WUHU216HW,2013-07-23 11:02:00,
2013-07-23 04:03:00,67.9,60.9,30.01,WSW,248,3.1,3.6,78,0.00,,,0.00,WUHU216HW,2013-07-23 11:03:00,
2013-07-23 04:06:00,67.9,60.9,30.01,WSW,248,3.6,4.0,78,0.00,,,0.00,WUHU216HW,2013-07-23 11:06:00,
2013-07-23 04:07:00,67.9,60.9,30.01,WSW,248,3.1,4.0,78,0.00,,,0.00,WUHU216HW,2013-07-23 11:07:00,
2013-07-23 04:08:00,67.9,60.9,30.01,WSW,248,3.1,4.0,78,0.00,,,0.00,WUHU216HW,2013-07-23 11:08:00,
2013-07-23 04:09:00,67.9,60.9,30.01,WSW,248,3.4,4.0,78,0.00,,,0.00,WUHU216HW,2013-07-23 11:09:00,
2013-07-23 04:11:00,68.0,61.0,30.01,WSW,248,3.1,4.0,78,0.00,,,0.00,WUHU216HW,2013-07-23 11:11:00,
2013-07-23 04:12:00,68.0,61.0,30.01,West,270,2.0,4.0,78,0.00,,,0.00,WUHU216HW,2013-07-23 11:12:00,
2013-07-23 04:13:00,68.0,60.6,30.01,West,270,2.0,4.0,77,0.00,,,0.00,WUHU216HW,2013-07-23 11:13:00,
2013-07-23 04:14:00,68.0,61.0,30.01,West,270,1.1,4.0,78,0.00,,,0.00,WUHU216HW,2013-07-23 11:14:00,
2013-07-23 04:17:00,68.0,61.0,30.01,West,270,2.0,4.0,78,0.00,,,0.00,WUHU216HW,2013-07-23 11:17:00,
2013-07-23 04:18:00,68.0,61.0,30.01,West,270,3.1,4.0,78,0.00,,,0.00,WUHU216HW,2013-07-23 11:18:00,
2013-07-23 04:19:00,68.0,61.0,30.01,West,270,2.5,4.0,78,0.00,,,0.00,WUHU216HW,2013-07-23 11:19:00,
2013-07-23 04:22:00,68.2,60.8,30.01,West,270,4.0,4.0,77,0.00,,,0.00,WUHU216HW,2013-07-23 11:22:00,
2013-07-23 04:23:00,68.2,60.8,30.01,WSW,248,4.5,4.9,77,0.00,,,0.00,WUHU216HW,2013-07-23 11:23:00,
2013-07-23 04:24:00,68.2,60.8,30.01,West,270,3.1,4.9,77,0.00,,,0.00,WUHU216HW,2013-07-23 11:24:00,
2013-07-23 04:27:00,68.4,60.9,30.01,WSW,248,3.1,4.9,77,0.00,,,0.00,WUHU216HW,2013-07-23 11:27:00,
2013-07-23 04:28:00,68.4,60.9,30.01,West,270,3.8,4.9,77,0.00,,,0.00,WUHU216HW,2013-07-23 11:28:00,
2013-07-23 04:29:00,68.4,60.9,30.01,West,270,2.5,4.9,77,0.00,,,0.00,WUHU216HW,2013-07-23 11:29:00,
2013-07-23 04:33:00,68.6,61.1,30.02,West,270,2.5,4.7,77,0.00,,,0.00,WUHU216HW,2013-07-23 11:33:00,
2013-07-23 04:34:00,68.6,61.1,30.02,West,270,1.1,4.0,77,0.00,,,0.00,WUHU216HW,2013-07-23 11:34:00,
2013-07-23 04:38:00,68.8,61.3,30.02,WSW,248,1.8,3.8,77,0.00,,,0.00,WUHU216HW,2013-07-23 11:38:00,
2013-07-23 04:39:00,68.8,61.3,30.02,West,270,1.8,3.4,77,0.00,,,0.00,WUHU216HW,2013-07-23 11:39:00,
2013-07-23 04:43:00,68.8,61.3,30.02,WNW,293,0.7,2.7,77,0.00,,,0.00,WUHU216HW,2013-07-23 11:43:00,
2013-07-23 04:44:00,68.8,61.3,30.02,WSW,248,1.3,2.7,77,0.00,,,0.00,WUHU216HW,2013-07-23 11:44:00,
2013-07-23 04:45:00,68.8,61.3,30.02,WSW,248,1.8,2.7,77,0.00,,,0.00,WUHU216HW,2013-07-23 11:45:00,
2013-07-23 04:48:00,68.8,61.3,30.02,WNW,293,1.6,2.7,77,0.00,,,0.00,WUHU216HW,2013-07-23 11:48:00,
2013-07-23 04:49:00,68.8,61.3,30.02,WNW,293,1.1,2.7,77,0.00,,,0.00,WUHU216HW,2013-07-23 11:49:00,
2013-07-23 04:50:00,68.8,60.8,30.02,West,270,1.6,2.7,76,0.00,,,0.00,WUHU216HW,2013-07-23 11:50:00,
2013-07-23 04:53:00,68.8,60.8,30.02,WNW,293,0.4,1.8,76,0.00,,,0.00,WUHU216HW,2013-07-23 11:53:00,
2013-07-23 04:54:00,68.8,60.8,30.02,WNW,293,0.7,1.8,76,0.00,,,0.00,WUHU216HW,2013-07-23 11:54:00,
2013-07-23 04:55:00,68.8,60.8,30.02,WSW,248,1.1,1.8,76,0.00,,,0.00,WUHU216HW,2013-07-23 11:55:00,
2013-07-23 04:58:00,68.8,60.8,30.02,West,270,1.1,1.8,76,0.00,,,0.00,WUHU216HW,2013-07-23 11:58:00,
2013-07-23 04:59:00,68.8,60.8,30.02,West,270,1.1,1.8,76,0.00,,,0.00,WUHU216HW,2013-07-23 11:59:00,
2013-07-23 05:00:00,68.8,60.8,30.02,West,270,1.1,1.6,76,0.00,,,0.00,WUHU216HW,2013-07-23 12:00:00,
2013-07-23 05:03:00,68.8,61.3,30.02,WSW,248,1.3,2.5,77,0.00,,,0.00,WUHU216HW,2013-07-23 12:03:00,
2013-07-23 05:04:00,68.8,61.3,30.02,WSW,248,1.6,2.5,77,0.00,,,0.00,WUHU216HW,2013-07-23 12:04:00,
2013-07-23 05:05:00,68.6,61.1,30.02,WSW,248,1.8,2.5,77,0.00,,,0.00,WUHU216HW,2013-07-23 12:05:00,
2013-07-23 05:08:00,68.6,61.1,30.02,WSW,248,0.0,2.5,77,0.00,,,0.00,WUHU216HW,2013-07-23 12:08:00,
2013-07-23 05:09:00,68.6,61.1,30.02,WSW,248,0.0,2.5,77,0.00,,,0.00,WUHU216HW,2013-07-23 12:09:00,
2013-07-23 05:10:00,68.6,61.1,30.02,WSW,248,0.0,2.5,77,0.00,,,0.00,WUHU216HW,2013-07-23 12:10:00,
2013-07-23 05:14:00,68.4,60.6,30.02,WNW,293,0.0,2.5,76,0.00,,,0.00,WUHU216HW,2013-07-23 12:14:00,
2013-07-23 05:15:00,68.4,60.6,30.03,NW,315,0.0,2.5,76,0.00,,,0.00,WUHU216HW,2013-07-23 12:15:00,
2013-07-23 05:16:00,68.4,60.6,30.03,NE,45,1.8,1.8,76,0.00,,,0.00,WUHU216HW,2013-07-23 12:16:00,
2013-07-23 05:19:00,68.4,60.6,30.02,ENE,68,2.2,3.1,76,0.00,,,0.00,WUHU216HW,2013-07-23 12:19:00,
2013-07-23 05:20:00,68.4,60.9,30.03,East,90,2.0,3.1,77,0.00,,,0.00,WUHU216HW,2013-07-23 12:20:00,
2013-07-23 05:21:00,68.4,60.9,30.03,East,90,1.8,3.1,77,0.00,,,0.00,WUHU216HW,2013-07-23 12:21:00,
2013-07-23 05:24:00,68.4,60.9,30.03,ESE,113,1.1,3.1,77,0.00,,,0.00,WUHU216HW,2013-07-23 12:24:00,
2013-07-23 05:25:00,68.4,60.9,30.03,ESE,113,0.9,3.1,77,0.00,,,0.00,WUHU216HW,2013-07-23 12:25:00,
2013-07-23 05:26:00,68.4,60.9,30.03,ESE,113,1.6,3.1,77,0.00,,,0.00,WUHU216HW,2013-07-23 12:26:00,
2013-07-23 05:30:00,68.4,60.9,30.03,SSE,158,1.1,2.2,77,0.00,,,0.00,WUHU216HW,2013-07-23 12:30:00,
2013-07-23 05:31:00,68.4,60.9,30.03,SSE,158,0.4,2.2,77,0.00,,,0.00,WUHU216HW,2013-07-23 12:31:00,
2013-07-23 05:32:00,68.2,60.8,30.03,SSE,158,1.1,2.0,77,0.00,,,0.00,WUHU216HW,2013-07-23 12:32:00,
2013-07-23 05:35:00,68.0,60.6,30.03,SSE,158,0.9,1.8,77,0.00,,,0.00,WUHU216HW,2013-07-23 12:35:00,
2013-07-23 05:36:00,68.0,61.0,30.03,SSW,203,0.4,1.8,78,0.00,,,0.00,WUHU216HW,2013-07-23 12:36:00,
2013-07-23 05:37:00,68.0,61.0,30.03,SSW,203,1.3,1.8,78,0.00,,,0.00,WUHU216HW,2013-07-23 12:37:00,
2013-07-23 05:40:00,67.9,60.9,30.03,SSW,203,1.6,1.8,78,0.00,,,0.00,WUHU216HW,2013-07-23 12:40:00,
2013-07-23 05:41:00,67.9,60.9,30.03,SW,225,1.1,1.8,78,0.00,,,0.00,WUHU216HW,2013-07-23 12:41:00,
2013-07-23 05:42:00,67.7,60.7,30.03,SW,225,0.4,1.8,78,0.00,,,0.00,WUHU216HW,2013-07-23 12:42:00,
2013-07-23 05:45:00,67.7,61.0,30.03,SSW,203,1.8,1.8,79,0.00,,,0.00,WUHU216HW,2013-07-23 12:45:00,
2013-07-23 05:46:00,67.7,61.0,30.03,SSW,203,1.6,2.0,79,0.00,,,0.00,WUHU216HW,2013-07-23 12:46:00,
2013-07-23 05:47:00,67.7,61.0,30.03,SSW,203,1.8,2.0,79,0.00,,,0.00,WUHU216HW,2013-07-23 12:47:00,
2013-07-23 05:50:00,67.5,60.9,30.03,SW,225,0.9,2.0,79,0.00,,,0.00,WUHU216HW,2013-07-23 12:50:00,
2013-07-23 05:51:00,67.5,60.9,30.03,SW,225,0.9,2.0,79,0.00,,,0.00,WUHU216HW,2013-07-23 12:51:00,
2013-07-23 05:52:00,67.5,60.9,30.03,SW,225,0.9,2.0,79,0.00,,,0.00,WUHU216HW,2013-07-23 12:52:00,
2013-07-23 05:55:00,67.5,60.9,30.03,WSW,248,1.6,2.0,79,0.00,,,0.00,WUHU216HW,2013-07-23 12:55:00,
2013-07-23 05:56:00,67.5,60.9,30.03,SW,225,2.2,2.2,79,0.00,,,0.00,WUHU216HW,2013-07-23 12:56:00,
2013-07-23 05:57:00,67.5,60.9,30.03,SW,225,1.6,2.2,79,0.00,,,0.00,WUHU216HW,2013-07-23 12:57:00,
2013-07-23 05:58:00,67.5,60.9,30.03,SW,225,1.8,2.2,79,0.00,,,0.00,WUHU216HW,2013-07-23 12:58:00,
2013-07-23 06:01:00,67.7,61.0,30.03,WSW,248,1.1,2.2,79,0.00,,,0.00,WUHU216HW,2013-07-23 13:01:00,
2013-07-23 06:02:00,67.7,61.0,30.03,SW,225,2.2,2.9,79,0.00,,,0.00,WUHU216HW,2013-07-23 13:02:00,
2013-07-23 06:03:00,67.7,61.0,30.03,SW,225,1.6,2.9,79,0.00,,,0.00,WUHU216HW,2013-07-23 13:03:00,
2013-07-23 06:06:00,67.9,61.2,30.03,South,180,1.6,2.9,79,0.00,,,0.00,WUHU216HW,2013-07-23 13:06:00,
2013-07-23 06:07:00,68.0,61.4,30.03,SW,225,1.1,2.9,79,0.00,,,0.00,WUHU216HW,2013-07-23 13:07:00,
2013-07-23 06:08:00,68.0,61.4,30.03,SW,225,0.0,2.9,79,0.00,,,0.00,WUHU216HW,2013-07-23 13:08:00,
2013-07-23 06:11:00,68.0,61.0,30.03,SW,225,0.2,2.9,78,0.00,,,0.00,WUHU216HW,2013-07-23 13:11:00,
2013-07-23 06:12:00,68.0,61.0,30.03,SW,225,0.4,2.9,78,0.00,,,0.00,WUHU216HW,2013-07-23 13:12:00,
2013-07-23 06:14:00,68.2,61.1,30.03,SW,225,0.4,2.0,78,0.00,,,0.00,WUHU216HW,2013-07-23 13:14:00,
2013-07-23 06:16:00,68.4,61.3,30.03,West,270,0.7,1.8,78,0.00,,,0.00,WUHU216HW,2013-07-23 13:16:00,
2013-07-23 06:17:00,68.6,61.5,30.03,West,270,1.3,1.6,78,0.00,,,0.00,WUHU216HW,2013-07-23 13:17:00,
2013-07-23 06:19:00,68.6,61.5,30.04,West,270,2.7,2.7,78,0.00,,,0.00,WUHU216HW,2013-07-23 13:19:00,
2013-07-23 06:21:00,68.8,61.7,30.03,WSW,248,2.9,3.4,78,0.00,,,0.00,WUHU216HW,2013-07-23 13:21:00,
2013-07-23 06:22:00,68.8,61.7,30.03,WSW,248,1.8,3.8,78,0.00,,,0.00,WUHU216HW,2013-07-23 13:22:00,
2013-07-23 06:23:00,68.8,61.7,30.03,WSW,248,3.6,3.8,78,0.00,,,0.00,WUHU216HW,2013-07-23 13:23:00,
2013-07-23 06:24:00,68.9,61.8,30.04,WSW,248,2.7,4.7,78,0.00,,,0.00,WUHU216HW,2013-07-23 13:24:00,
2013-07-23 06:27:00,69.1,61.9,30.04,West,270,1.6,4.7,78,0.00,,,0.00,WUHU216HW,2013-07-23 13:27:00,
2013-07-23 06:28:00,69.3,62.1,30.03,West,270,1.1,4.7,78,0.00,,,0.00,WUHU216HW,2013-07-23 13:28:00,
2013-07-23 06:29:00,69.5,61.9,30.04,WNW,293,1.8,4.7,77,0.00,,,0.00,WUHU216HW,2013-07-23 13:29:00,
2013-07-23 06:32:00,69.7,62.1,30.04,WNW,293,0.4,4.7,77,0.00,,,0.00,WUHU216HW,2013-07-23 13:32:00,
2013-07-23 06:33:00,69.8,62.2,30.04,WNW,293,2.2,4.7,77,0.00,,,0.00,WUHU216HW,2013-07-23 13:33:00,
2013-07-23 06:34:00,70.0,62.4,30.04,WNW,293,2.5,3.4,77,0.00,,,0.00,WUHU216HW,2013-07-23 13:34:00,
2013-07-23 06:37:00,70.2,62.6,30.04,WSW,248,2.0,3.1,77,0.00,,,0.00,WUHU216HW,2013-07-23 13:37:00,
2013-07-23 06:38:00,70.4,62.7,30.04,WSW,248,2.5,3.1,77,0.00,,,0.00,WUHU216HW,2013-07-23 13:38:00,
2013-07-23 06:39:00,70.4,62.7,30.04,WSW,248,1.1,4.0,77,0.00,,,0.00,WUHU216HW,2013-07-23 13:39:00,
2013-07-23 06:42:00,70.7,62.7,30.04,WSW,248,2.2,4.0,76,0.00,,,0.00,WUHU216HW,2013-07-23 13:42:00,
2013-07-23 06:43:00,70.7,62.7,30.04,SW,225,2.2,4.0,76,0.00,,,0.00,WUHU216HW,2013-07-23 13:43:00,
2013-07-23 06:44:00,70.9,62.9,30.04,WSW,248,2.5,4.0,76,0.00,,,0.00,WUHU216HW,2013-07-23 13:44:00,
2013-07-23 06:48:00,71.1,63.1,30.04,NNW,338,0.4,4.0,76,0.00,,,0.00,WUHU216HW,2013-07-23 13:48:00,
2013-07-23 06:49:00,71.3,63.3,30.04,NNW,338,0.0,2.5,76,0.00,,,0.00,WUHU216HW,2013-07-23 13:49:00,
2013-07-23 06:53:00,71.5,63.5,30.04,NE,45,0.7,2.5,76,0.00,,,0.00,WUHU216HW,2013-07-23 13:53:00,
2013-07-23 06:54:00,71.6,63.6,30.04,NE,45,1.8,2.5,76,0.00,,,0.00,WUHU216HW,2013-07-23 13:54:00,
2013-07-23 06:58:00,71.8,63.8,30.05,NE,45,1.8,2.5,76,0.00,,,0.00,WUHU216HW,2013-07-23 13:58:00,
2013-07-23 06:59:00,72.0,64.0,30.05,ENE,68,2.0,2.5,76,0.00,,,0.00,WUHU216HW,2013-07-23 13:59:00,
2013-07-23 07:00:00,72.0,64.0,30.05,ENE,68,2.0,2.5,76,0.00,,,0.00,WUHU216HW,2013-07-23 14:00:00,
2013-07-23 07:03:00,72.4,64.4,30.05,ENE,68,2.9,3.1,76,0.00,,,0.00,WUHU216HW,2013-07-23 14:03:00,
2013-07-23 07:04:00,72.4,64.4,30.05,ENE,68,3.6,3.6,76,0.00,,,0.00,WUHU216HW,2013-07-23 14:04:00,
2013-07-23 07:05:00,72.7,64.7,30.05,ENE,68,3.1,3.6,76,0.00,,,0.00,WUHU216HW,2013-07-23 14:05:00,
2013-07-23 07:08:00,72.9,64.5,30.05,NNE,23,2.2,4.0,75,0.00,,,0.00,WUHU216HW,2013-07-23 14:08:00,
2013-07-23 07:09:00,72.9,64.5,30.05,NE,45,1.1,4.0,75,0.00,,,0.00,WUHU216HW,2013-07-23 14:09:00,
2013-07-23 07:11:00,73.1,64.7,30.05,NE,45,3.6,4.0,75,0.00,,,0.00,WUHU216HW,2013-07-23 14:11:00,
2013-07-23 07:13:00,73.4,65.1,30.05,NE,45,1.3,4.0,75,0.00,,,0.00,WUHU216HW,2013-07-23 14:13:00,
2013-07-23 07:14:00,73.6,65.3,30.05,ENE,68,2.2,4.0,75,0.00,,,0.00,WUHU216HW,2013-07-23 14:14:00,
2013-07-23 07:15:00,73.8,65.4,30.05,NNE,23,1.6,4.0,75,0.00,,,0.00,WUHU216HW,2013-07-23 14:15:00,
2013-07-23 07:18:00,74.2,65.3,30.05,NE,45,3.8,4.0,74,0.00,,,0.00,WUHU216HW,2013-07-23 14:18:00,
2013-07-23 07:19:00,74.2,65.3,30.05,NE,45,3.8,4.0,74,0.00,,,0.00,WUHU216HW,2013-07-23 14:19:00,
2013-07-23 07:21:00,74.5,65.4,30.05,NNE,23,2.2,4.3,73,0.00,,,0.00,WUHU216HW,2013-07-23 14:21:00,
2013-07-23 07:24:00,74.9,65.3,30.05,NE,45,1.6,4.3,72,0.00,,,0.00,WUHU216HW,2013-07-23 14:24:00,
2013-07-23 07:25:00,75.1,65.4,30.05,NNE,23,1.1,4.3,72,0.00,,,0.00,WUHU216HW,2013-07-23 14:25:00,
2013-07-23 07:26:00,75.2,65.2,30.05,NNE,23,2.0,4.3,71,0.00,,,0.00,WUHU216HW,2013-07-23 14:26:00,
2013-07-23 07:29:00,75.4,65.3,30.05,ENE,68,1.1,4.3,71,0.00,,,0.00,WUHU216HW,2013-07-23 14:29:00,
2013-07-23 07:30:00,75.6,65.5,30.05,NNE,23,2.7,3.4,71,0.00,,,0.00,WUHU216HW,2013-07-23 14:30:00,
2013-07-23 07:31:00,75.6,65.2,30.05,North,0,1.1,3.4,70,0.00,,,0.00,WUHU216HW,2013-07-23 14:31:00,
2013-07-23 07:34:00,75.8,64.4,30.05,NNE,23,2.9,2.9,68,0.00,,,0.00,WUHU216HW,2013-07-23 14:34:00,
2013-07-23 07:35:00,75.8,64.9,30.05,NNE,23,6.3,6.3,69,0.00,,,0.00,WUHU216HW,2013-07-23 14:35:00,
2013-07-23 07:36:00,75.8,64.9,30.05,NE,45,6.0,6.3,69,0.00,,,0.00,WUHU216HW,2013-07-23 14:36:00,
2013-07-23 07:39:00,76.0,65.1,30.05,NNE,23,4.0,6.3,69,0.00,,,0.00,WUHU216HW,2013-07-23 14:39:00,
2013-07-23 07:40:00,76.1,65.3,30.05,NNE,23,2.7,6.3,69,0.00,,,0.00,WUHU216HW,2013-07-23 14:40:00,
2013-07-23 07:42:00,76.3,65.0,30.06,North,0,2.2,6.3,68,0.00,,,0.00,WUHU216HW,2013-07-23 14:42:00,
2013-07-23 07:44:00,76.3,64.1,30.05,NNW,338,1.6,6.3,66,0.00,,,0.00,WUHU216HW,2013-07-23 14:44:00,
2013-07-23 07:45:00,76.3,64.1,30.05,NW,315,2.5,6.0,66,0.00,,,0.00,WUHU216HW,2013-07-23 14:45:00,
2013-07-23 07:46:00,76.3,63.6,30.05,NW,315,5.4,6.0,65,0.00,,,0.00,WUHU216HW,2013-07-23 14:46:00,
2013-07-23 07:47:00,76.1,62.7,30.05,WNW,293,4.7,5.4,63,0.00,,,0.00,WUHU216HW,2013-07-23 14:47:00,
2013-07-23 07:49:00,76.1,62.2,30.05,NW,315,3.4,5.4,62,0.00,,,0.00,WUHU216HW,2013-07-23 14:49:00,
2013-07-23 07:50:00,76.0,62.5,30.06,NNW,338,2.5,5.4,63,0.00,,,0.00,WUHU216HW,2013-07-23 14:50:00,
2013-07-23 07:51:00,76.0,62.5,30.05,NW,315,2.9,5.4,63,0.00,,,0.00,WUHU216HW,2013-07-23 14:51:00,
2013-07-23 07:52:00,76.0,62.5,30.05,WNW,293,6.9,7.2,63,0.00,,,0.00,WUHU216HW,2013-07-23 14:52:00,
2013-07-23 07:54:00,75.8,61.8,30.05,West,270,5.4,7.2,62,0.00,,,0.00,WUHU216HW,2013-07-23 14:54:00,
2013-07-23 07:55:00,75.8,61.8,30.05,West,270,3.8,7.2,62,0.00,,,0.00,WUHU216HW,2013-07-23 14:55:00,
2013-07-23 07:56:00,75.8,61.8,30.05,West,270,6.3,7.2,62,0.00,,,0.00,WUHU216HW,2013-07-23 14:56:00,
2013-07-23 07:58:00,75.8,61.8,30.05,NW,315,4.3,7.6,62,0.00,,,0.00,WUHU216HW,2013-07-23 14:58:00,
2013-07-23 07:59:00,75.6,61.7,30.05,NW,315,6.0,7.6,62,0.00,,,0.00,WUHU216HW,2013-07-23 14:59:00,
2013-07-23 08:00:00,75.6,61.7,30.06,NW,315,6.0,7.6,62,0.00,,,0.00,WUHU216HW,2013-07-23 15:00:00,
2013-07-23 08:01:00,75.6,61.7,30.06,NNW,338,8.3,9.6,62,0.00,,,0.00,WUHU216HW,2013-07-23 15:01:00,
2013-07-23 08:03:00,75.4,61.9,30.06,NW,315,4.0,9.6,63,0.00,,,0.00,WUHU216HW,2013-07-23 15:03:00,
2013-07-23 08:05:00,75.6,62.6,30.06,NW,315,3.4,9.6,64,0.00,,,0.00,WUHU216HW,2013-07-23 15:05:00,
2013-07-23 08:06:00,75.6,62.1,30.05,NNW,338,7.2,9.6,63,0.00,,,0.00,WUHU216HW,2013-07-23 15:06:00,
2013-07-23 08:08:00,75.4,61.9,30.06,West,270,7.4,9.6,63,0.00,,,0.00,WUHU216HW,2013-07-23 15:08:00,
2013-07-23 08:10:00,75.6,62.1,30.05,NW,315,5.6,9.6,63,0.00,,,0.00,WUHU216HW,2013-07-23 15:10:00,
2013-07-23 08:11:00,75.6,62.6,30.06,NW,315,3.6,8.3,64,0.00,,,0.00,WUHU216HW,2013-07-23 15:11:00,
2013-07-23 08:13:00,75.6,62.1,30.05,WSW,248,5.8,8.3,63,0.00,,,0.00,WUHU216HW,2013-07-23 15:13:00,
2013-07-23 08:15:00,75.6,62.1,30.05,North,0,6.5,9.2,63,0.00,,,0.00,WUHU216HW,2013-07-23 15:15:00,
2013-07-23 08:16:00,75.8,62.3,30.05,NW,315,5.6,9.2,63,0.00,,,0.00,WUHU216HW,2013-07-23 15:16:00,
2013-07-23 08:18:00,75.8,61.8,30.05,NNW,338,9.2,9.2,62,0.00,,,0.00,WUHU216HW,2013-07-23 15:18:00,
2013-07-23 08:20:00,75.8,61.8,30.05,WNW,293,9.4,9.4,62,0.00,,,0.00,WUHU216HW,2013-07-23 15:20:00,
2013-07-23 08:21:00,75.8,61.4,30.05,NW,315,7.6,9.4,61,0.00,,,0.00,WUHU216HW,2013-07-23 15:21:00,
2013-07-23 08:22:00,75.8,61.8,30.05,NNW,338,4.7,9.4,62,0.00,,,0.00,WUHU216HW,2013-07-23 15:22:00,
2013-07-23 08:24:00,76.0,62.0,30.05,WSW,248,10.1,10.1,62,0.00,,,0.00,WUHU216HW,2013-07-23 15:24:00,
2013-07-23 08:25:00,76.0,62.0,30.05,NNW,338,9.2,10.1,62,0.00,,,0.00,WUHU216HW,2013-07-23 15:25:00,
2013-07-23 08:26:00,76.0,62.5,30.05,North,0,8.5,10.1,63,0.00,,,0.00,WUHU216HW,2013-07-23 15:26:00,
2013-07-23 08:27:00,76.0,62.5,30.05,North,0,8.5,10.1,63,0.00,,,0.00,WUHU216HW,2013-07-23 15:27:00,
2013-07-23 08:29:00,76.0,62.5,30.05,NNW,338,5.4,10.1,63,0.00,,,0.00,WUHU216HW,2013-07-23 15:29:00,
2013-07-23 08:30:00,76.1,61.8,30.05,NW,315,7.6,10.7,61,0.00,,,0.00,WUHU216HW,2013-07-23 15:30:00,
2013-07-23 08:31:00,76.3,61.9,30.05,NW,315,8.1,10.7,61,0.00,,,0.00,WUHU216HW,2013-07-23 15:31:00,
2013-07-23 08:32:00,76.3,61.9,30.05,NNW,338,7.6,10.7,61,0.00,,,0.00,WUHU216HW,2013-07-23 15:32:00,
2013-07-23 08:34:00,76.3,61.5,30.05,NNW,338,6.9,10.7,60,0.00,,,0.00,WUHU216HW,2013-07-23 15:34:00,
2013-07-23 08:35:00,76.3,61.5,30.05,NW,315,9.2,10.7,60,0.00,,,0.00,WUHU216HW,2013-07-23 15:35:00,
2013-07-23 08:36:00,76.3,61.5,30.05,NNW,338,7.6,10.7,60,0.00,,,0.00,WUHU216HW,2013-07-23 15:36:00,
2013-07-23 08:37:00,76.3,61.5,30.05,WSW,248,5.8,10.7,60,0.00,,,0.00,WUHU216HW,2013-07-23 15:37:00,
2013-07-23 08:39:00,76.5,62.1,30.05,NNW,338,7.8,10.7,61,0.00,,,0.00,WUHU216HW,2013-07-23 15:39:00,
2013-07-23 08:40:00,76.5,61.7,30.05,NW,315,5.1,10.1,60,0.00,,,0.00,WUHU216HW,2013-07-23 15:40:00,
2013-07-23 08:41:00,76.7,61.7,30.05,NW,315,5.4,10.1,60,0.00,,,0.00,WUHU216HW,2013-07-23 15:41:00,
2013-07-23 08:42:00,76.5,62.1,30.05,NNW,338,4.7,10.1,61,0.00,,,0.00,WUHU216HW,2013-07-23 15:42:00,
2013-07-23 08:44:00,76.7,62.6,30.05,NW,315,8.9,10.1,62,0.00,,,0.00,WUHU216HW,2013-07-23 15:44:00,
2013-07-23 08:45:00,76.7,62.2,30.05,WNW,293,9.2,9.2,61,0.00,,,0.00,WUHU216HW,2013-07-23 15:45:00,
2013-07-23 08:47:00,76.9,61.9,30.05,NW,315,7.2,9.6,60,0.00,,,0.00,WUHU216HW,2013-07-23 15:47:00,
2013-07-23 08:49:00,76.9,60.9,30.05,NNW,338,6.7,11.9,58,0.00,,,0.00,WUHU216HW,2013-07-23 15:49:00,
2013-07-23 08:50:00,76.9,60.9,30.05,NNW,338,9.4,11.9,58,0.00,,,0.00,WUHU216HW,2013-07-23 15:50:00,
2013-07-23 08:52:00,76.9,61.5,30.05,NW,315,8.5,11.9,59,0.00,,,0.00,WUHU216HW,2013-07-23 15:52:00,
2013-07-23 08:54:00,76.9,61.9,30.05,North,0,6.7,11.9,60,0.00,,,0.00,WUHU216HW,2013-07-23 15:54:00,
2013-07-23 08:56:00,77.0,62.1,30.05,West,270,8.1,11.9,60,0.00,,,0.00,WUHU216HW,2013-07-23 15:56:00,
2013-07-23 08:57:00,77.0,61.6,30.05,WNW,293,6.3,11.9,59,0.00,,,0.00,WUHU216HW,2013-07-23 15:57:00,
2013-07-23 08:58:00,77.0,62.1,30.05,West,270,8.1,11.9,60,0.00,,,0.00,WUHU216HW,2013-07-23 15:58:00,
2013-07-23 08:59:00,77.2,62.3,30.05,WNW,293,4.7,10.5,60,0.00,,,0.00,WUHU216HW,2013-07-23 15:59:00,
2013-07-23 09:01:00,77.4,61.9,30.05,NW,315,9.2,10.5,59,0.00,,,0.00,WUHU216HW,2013-07-23 16:01:00,
2013-07-23 09:02:00,77.4,61.9,30.05,NNW,338,7.6,9.8,59,0.00,,,0.00,WUHU216HW,2013-07-23 16:02:00,
2013-07-23 09:03:00,77.4,61.5,30.05,NNW,338,9.4,9.8,58,0.00,,,0.00,WUHU216HW,2013-07-23 16:03:00,
2013-07-23 09:04:00,77.6,61.7,30.05,North,0,5.4,9.8,58,0.00,,,0.00,WUHU216HW,2013-07-23 16:04:00,
2013-07-23 09:06:00,77.6,61.1,30.05,NW,315,9.2,9.8,57,0.00,,,0.00,WUHU216HW,2013-07-23 16:06:00,
2013-07-23 09:07:00,77.8,61.8,30.05,NW,315,6.5,9.8,58,0.00,,,0.00,WUHU216HW,2013-07-23 16:07:00,
2013-07-23 09:08:00,77.8,61.3,30.05,WNW,293,6.5,9.8,57,0.00,,,0.00,WUHU216HW,2013-07-23 16:08:00,
2013-07-23 09:09:00,77.8,61.3,30.05,NNW,338,6.3,9.8,57,0.00,,,0.00,WUHU216HW,2013-07-23 16:09:00,
2013-07-23 09:11:00,77.8,61.8,30.05,NNW,338,4.9,9.8,58,0.00,,,0.00,WUHU216HW,2013-07-23 16:11:00,
2013-07-23 09:12:00,77.8,61.8,30.05,NNW,338,4.5,9.8,58,0.00,,,0.00,WUHU216HW,2013-07-23 16:12:00,
2013-07-23 09:13:00,77.8,61.8,30.05,NNW,338,3.4,9.8,58,0.00,,,0.00,WUHU216HW,2013-07-23 16:13:00,
2013-07-23 09:14:00,77.8,62.3,30.05,NW,315,4.0,9.8,59,0.00,,,0.00,WUHU216HW,2013-07-23 16:14:00,
2013-07-23 09:15:00,77.8,61.8,30.05,NNW,338,4.9,9.8,58,0.00,,,0.00,WUHU216HW,2013-07-23 16:15:00,
2013-07-23 09:16:00,77.9,62.0,30.05,NW,315,4.3,9.6,58,0.00,,,0.00,WUHU216HW,2013-07-23 16:16:00,
2013-07-23 09:17:00,77.9,62.0,30.05,NNW,338,6.9,9.6,58,0.00,,,0.00,WUHU216HW,2013-07-23 16:17:00,
2013-07-23 09:18:00,77.9,62.0,30.05,WNW,293,9.6,9.6,58,0.00,,,0.00,WUHU216HW,2013-07-23 16:18:00,
2013-07-23 09:19:00,78.1,61.7,30.05,NW,315,9.4,9.6,57,0.00,,,0.00,WUHU216HW,2013-07-23 16:19:00,
2013-07-23 09:20:00,78.1,61.7,30.05,NNW,338,6.7,9.6,57,0.00,,,0.00,WUHU216HW,2013-07-23 16:20:00,
2013-07-23 09:21:00,78.1,61.7,30.05,NNW,338,8.5,9.6,57,0.00,,,0.00,WUHU216HW,2013-07-23 16:21:00,
2013-07-23 09:22:00,78.3,61.3,30.05,WNW,293,5.6,9.6,56,0.00,,,0.00,WUHU216HW,2013-07-23 16:22:00,
2013-07-23 09:24:00,78.3,61.3,30.05,WNW,293,6.0,9.6,56,0.00,,,0.00,WUHU216HW,2013-07-23 16:24:00,
2013-07-23 09:25:00,78.3,61.8,30.05,NNW,338,7.6,9.6,57,0.00,,,0.00,WUHU216HW,2013-07-23 16:25:00,
2013-07-23 09:26:00,78.3,60.8,30.05,NW,315,8.5,9.6,55,0.00,,,0.00,WUHU216HW,2013-07-23 16:26:00,
2013-07-23 09:28:00,78.5,60.9,30.05,WNW,293,4.9,9.6,55,0.00,,,0.00,WUHU216HW,2013-07-23 16:28:00,
2013-07-23 09:29:00,78.5,60.9,30.05,NW,315,4.7,9.4,55,0.00,,,0.00,WUHU216HW,2013-07-23 16:29:00,
2013-07-23 09:30:00,78.5,60.4,30.05,NW,315,8.9,8.9,54,0.00,,,0.00,WUHU216HW,2013-07-23 16:30:00,
2013-07-23 09:31:00,78.5,60.4,30.05,North,0,3.8,8.9,54,0.00,,,0.00,WUHU216HW,2013-07-23 16:31:00,
2013-07-23 09:33:00,78.7,60.6,30.05,NW,315,11.9,11.9,54,0.00,,,0.00,WUHU216HW,2013-07-23 16:33:00,
2013-07-23 09:34:00,78.7,60.1,30.05,NW,315,8.7,11.9,53,0.00,,,0.00,WUHU216HW,2013-07-23 16:34:00,
2013-07-23 09:36:00,78.7,61.1,30.05,NW,315,8.5,11.9,55,0.00,,,0.00,WUHU216HW,2013-07-23 16:36:00,
2013-07-23 09:37:00,78.7,61.1,30.05,NNW,338,7.6,11.9,55,0.00,,,0.00,WUHU216HW,2013-07-23 16:37:00,
2013-07-23 09:38:00,78.7,61.7,30.05,NW,315,4.0,11.9,56,0.00,,,0.00,WUHU216HW,2013-07-23 16:38:00,
2013-07-23 09:39:00,78.7,61.7,30.05,NW,315,3.4,11.9,56,0.00,,,0.00,WUHU216HW,2013-07-23 16:39:00,
2013-07-23 09:41:00,78.8,62.4,30.05,NW,315,4.7,11.9,57,0.00,,,0.00,WUHU216HW,2013-07-23 16:41:00,
2013-07-23 09:42:00,79.0,62.0,30.05,NNW,338,8.1,11.9,56,0.00,,,0.00,WUHU216HW,2013-07-23 16:42:00,
2013-07-23 09:43:00,79.0,61.5,30.05,NW,315,6.9,11.4,55,0.00,,,0.00,WUHU216HW,2013-07-23 16:43:00,
2013-07-23 09:44:00,79.0,61.5,30.05,NW,315,6.9,11.4,55,0.00,,,0.00,WUHU216HW,2013-07-23 16:44:00,
2013-07-23 09:45:00,79.2,62.1,30.05,NNW,338,5.4,11.4,56,0.00,,,0.00,WUHU216HW,2013-07-23 16:45:00,
2013-07-23 09:46:00,79.2,62.1,30.05,NW,315,3.4,11.2,56,0.00,,,0.00,WUHU216HW,2013-07-23 16:46:00,
2013-07-23 09:48:00,79.2,61.7,30.05,NNW,338,5.1,9.8,55,0.00,,,0.00,WUHU216HW,2013-07-23 16:48:00,
2013-07-23 09:49:00,79.4,61.7,30.05,NW,315,7.6,9.8,55,0.00,,,0.00,WUHU216HW,2013-07-23 16:49:00,
2013-07-23 09:50:00,79.6,61.9,30.05,NW,315,5.4,9.8,55,0.00,,,0.00,WUHU216HW,2013-07-23 16:50:00,
2013-07-23 09:51:00,79.6,61.9,30.05,NW,315,8.1,9.8,55,0.00,,,0.00,WUHU216HW,2013-07-23 16:51:00,
2013-07-23 09:53:00,79.6,61.4,30.05,NW,315,8.7,9.8,54,0.00,,,0.00,WUHU216HW,2013-07-23 16:53:00,
2013-07-23 09:54:00,79.6,60.9,30.05,West,270,6.5,9.8,53,0.00,,,0.00,WUHU216HW,2013-07-23 16:54:00,
2013-07-23 09:55:00,79.7,61.6,30.05,NNW,338,4.9,9.8,54,0.00,,,0.00,WUHU216HW,2013-07-23 16:55:00,
2013-07-23 09:56:00,79.7,61.6,30.05,NNW,338,2.5,9.8,54,0.00,,,0.00,WUHU216HW,2013-07-23 16:56:00,
2013-07-23 09:58:00,79.7,61.6,30.05,NNW,338,2.7,9.8,54,0.00,,,0.00,WUHU216HW,2013-07-23 16:58:00,
2013-07-23 09:59:00,79.9,61.7,30.05,NW,315,4.5,9.8,54,0.00,,,0.00,WUHU216HW,2013-07-23 16:59:00,
2013-07-23 10:00:00,79.9,61.7,30.05,NW,315,4.0,9.6,54,0.00,,,0.00,WUHU216HW,2013-07-23 17:00:00,
2013-07-23 10:01:00,79.9,61.7,30.05,NW,315,5.4,9.6,54,0.00,,,0.00,WUHU216HW,2013-07-23 17:01:00,
2013-07-23 10:03:00,80.1,61.4,30.05,NW,315,9.6,9.6,53,0.00,,,0.00,WUHU216HW,2013-07-23 17:03:00,
2013-07-23 10:04:00,80.1,60.8,30.05,North,0,8.5,9.6,52,0.00,,,0.00,WUHU216HW,2013-07-23 17:04:00,
2013-07-23 10:05:00,80.1,60.8,30.05,NNW,338,6.3,9.6,52,0.00,,,0.00,WUHU216HW,2013-07-23 17:05:00,
2013-07-23 10:06:00,80.1,60.8,30.05,NW,315,4.7,9.6,52,0.00,,,0.00,WUHU216HW,2013-07-23 17:06:00,
2013-07-23 10:08:00,80.3,61.6,30.05,NW,315,5.4,9.6,53,0.00,,,0.00,WUHU216HW,2013-07-23 17:08:00,
2013-07-23 10:09:00,80.3,61.6,30.05,NW,315,4.7,9.6,53,0.00,,,0.00,WUHU216HW,2013-07-23 17:09:00,
2013-07-23 10:11:00,80.5,62.2,30.05,North,0,3.1,9.6,54,0.00,,,0.00,WUHU216HW,2013-07-23 17:11:00,
2013-07-23 10:13:00,80.6,60.9,30.05,NW,315,8.7,10.5,51,0.00,,,0.00,WUHU216HW,2013-07-23 17:13:00,
2013-07-23 10:14:00,80.6,61.4,30.05,NW,315,5.8,10.5,52,0.00,,,0.00,WUHU216HW,2013-07-23 17:14:00,
2013-07-23 10:16:00,80.6,60.9,30.05,NW,315,6.9,10.5,51,0.00,,,0.00,WUHU216HW,2013-07-23 17:16:00,
2013-07-23 10:18:00,80.8,61.0,30.05,WSW,248,7.2,10.5,51,0.00,,,0.00,WUHU216HW,2013-07-23 17:18:00,
2013-07-23 10:19:00,80.6,60.9,30.05,NW,315,9.8,10.5,51,0.00,,,0.00,WUHU216HW,2013-07-23 17:19:00,
2013-07-23 10:21:00,80.8,60.5,30.05,NW,315,9.6,10.5,50,0.00,,,0.00,WUHU216HW,2013-07-23 17:21:00,
2013-07-23 10:22:00,80.8,60.5,30.05,NW,315,6.9,9.8,50,0.00,,,0.00,WUHU216HW,2013-07-23 17:22:00,
2013-07-23 10:23:00,81.0,60.7,30.05,North,0,7.6,9.8,50,0.00,,,0.00,WUHU216HW,2013-07-23 17:23:00,
2013-07-23 10:24:00,81.0,60.7,30.05,NW,315,8.1,9.8,50,0.00,,,0.00,WUHU216HW,2013-07-23 17:24:00,
2013-07-23 10:25:00,81.0,61.1,30.05,WNW,293,3.1,9.8,51,0.00,,,0.00,WUHU216HW,2013-07-23 17:25:00,
2013-07-23 10:26:00,81.0,60.7,30.05,NNW,338,4.7,9.8,50,0.00,,,0.00,WUHU216HW,2013-07-23 17:26:00,
2013-07-23 10:27:00,81.0,60.7,30.05,NNW,338,3.8,9.8,50,0.00,,,0.00,WUHU216HW,2013-07-23 17:27:00,
2013-07-23 10:29:00,81.2,60.8,30.05,West,270,7.4,9.8,50,0.00,,,0.00,WUHU216HW,2013-07-23 17:29:00,
2013-07-23 10:30:00,81.2,61.3,30.05,NW,315,3.8,9.6,51,0.00,,,0.00,WUHU216HW,2013-07-23 17:30:00,
2013-07-23 10:32:00,81.4,61.5,30.05,WNW,293,2.2,8.9,51,0.00,,,0.00,WUHU216HW,2013-07-23 17:32:00,
2013-07-23 10:33:00,81.5,61.7,30.05,WSW,248,6.3,8.9,51,0.00,,,0.00,WUHU216HW,2013-07-23 17:33:00,
2013-07-23 10:34:00,81.7,61.8,30.05,NNW,338,2.5,8.1,51,0.00,,,0.00,WUHU216HW,2013-07-23 17:34:00,
2013-07-23 10:35:00,81.7,60.7,30.04,North,0,5.1,8.1,49,0.00,,,0.00,WUHU216HW,2013-07-23 17:35:00,
2013-07-23 10:37:00,81.7,60.7,30.05,North,0,7.6,9.6,49,0.00,,,0.00,WUHU216HW,2013-07-23 17:37:00,
2013-07-23 10:38:00,81.9,60.2,30.05,NW,315,11.0,11.0,48,0.00,,,0.00,WUHU216HW,2013-07-23 17:38:00,
2013-07-23 10:39:00,81.7,60.7,30.04,NNW,338,6.9,11.0,49,0.00,,,0.00,WUHU216HW,2013-07-23 17:39:00,
2013-07-23 10:40:00,81.7,60.7,30.04,North,0,8.3,11.0,49,0.00,,,0.00,WUHU216HW,2013-07-23 17:40:00,
2013-07-23 10:42:00,81.7,61.3,30.04,NW,315,8.1,11.0,50,0.00,,,0.00,WUHU216HW,2013-07-23 17:42:00,
2013-07-23 10:43:00,81.7,60.7,30.04,NW,315,8.9,11.0,49,0.00,,,0.00,WUHU216HW,2013-07-23 17:43:00,
2013-07-23 10:45:00,81.7,61.3,30.04,North,0,5.6,11.0,50,0.00,,,0.00,WUHU216HW,2013-07-23 17:45:00,
2013-07-23 10:46:00,81.7,60.7,30.04,North,0,7.2,11.0,49,0.00,,,0.00,WUHU216HW,2013-07-23 17:46:00,
2013-07-23 10:47:00,81.9,60.2,30.04,NNW,338,8.5,11.0,48,0.00,,,0.00,WUHU216HW,2013-07-23 17:47:00,
2013-07-23 10:50:00,82.1,61.6,30.04,NW,315,5.6,9.2,50,0.00,,,0.00,WUHU216HW,2013-07-23 17:50:00,
2013-07-23 10:51:00,82.3,60.6,30.04,NW,315,9.2,9.6,48,0.00,,,0.00,WUHU216HW,2013-07-23 17:51:00,
2013-07-23 10:52:00,82.3,60.6,30.04,NW,315,9.2,9.6,48,0.00,,,0.00,WUHU216HW,2013-07-23 17:52:00,
2013-07-23 10:55:00,82.3,60.6,30.04,NNW,338,4.9,10.3,48,0.00,,,0.00,WUHU216HW,2013-07-23 17:55:00,
2013-07-23 10:57:00,82.1,60.4,30.04,NNW,338,4.7,10.3,48,0.00,,,0.00,WUHU216HW,2013-07-23 17:57:00,
2013-07-23 10:58:00,82.1,61.0,30.04,NW,315,11.2,11.2,49,0.00,,,0.00,WUHU216HW,2013-07-23 17:58:00,
2013-07-23 10:59:00,82.3,60.6,30.04,NNW,338,11.2,11.2,48,0.00,,,0.00,WUHU216HW,2013-07-23 17:59:00,
2013-07-23 11:00:00,82.1,61.0,30.04,NNW,338,6.9,11.2,49,0.00,,,0.00,WUHU216HW,2013-07-23 18:00:00,
2013-07-23 11:02:00,82.3,61.1,30.04,NNW,338,4.0,11.2,49,0.00,,,0.00,WUHU216HW,2013-07-23 18:02:00,
2013-07-23 11:03:00,82.3,61.1,30.04,NNW,338,9.4,11.2,49,0.00,,,0.00,WUHU216HW,2013-07-23 18:03:00,
2013-07-23 11:04:00,82.3,61.1,30.04,NNW,338,9.4,11.2,49,0.00,,,0.00,WUHU216HW,2013-07-23 18:04:00,
2013-07-23 11:06:00,82.4,61.3,30.04,NW,315,5.6,11.2,49,0.00,,,0.00,WUHU216HW,2013-07-23 18:06:00,
2013-07-23 11:07:00,82.6,60.8,30.04,NNW,338,8.5,11.2,48,0.00,,,0.00,WUHU216HW,2013-07-23 18:07:00,
2013-07-23 11:08:00,82.6,60.3,30.04,NNW,338,10.5,13.4,47,0.00,,,0.00,WUHU216HW,2013-07-23 18:08:00,
2013-07-23 11:09:00,82.6,60.3,30.04,NNW,338,10.5,13.4,47,0.00,,,0.00,WUHU216HW,2013-07-23 18:09:00,
2013-07-23 11:11:00,82.6,60.8,30.04,WSW,248,5.8,13.4,48,0.00,,,0.00,WUHU216HW,2013-07-23 18:11:00,
2013-07-23 11:12:00,82.6,60.8,30.04,NW,315,6.9,13.4,48,0.00,,,0.00,WUHU216HW,2013-07-23 18:12:00,
2013-07-23 11:14:00,82.6,60.8,30.04,North,0,10.1,13.4,48,0.00,,,0.00,WUHU216HW,2013-07-23 18:14:00,
2013-07-23 11:17:00,82.6,60.3,30.04,NW,315,11.2,13.4,47,0.00,,,0.00,WUHU216HW,2013-07-23 18:17:00,
2013-07-23 11:18:00,82.6,60.3,30.04,NW,315,7.4,13.4,47,0.00,,,0.00,WUHU216HW,2013-07-23 18:18:00,
2013-07-23 11:19:00,82.6,60.3,30.04,NW,315,9.8,13.4,47,0.00,,,0.00,WUHU216HW,2013-07-23 18:19:00,
2013-07-23 11:20:00,82.8,61.0,30.04,NNW,338,10.5,13.4,48,0.00,,,0.00,WUHU216HW,2013-07-23 18:20:00,
2013-07-23 11:22:00,82.8,61.0,30.03,NNW,338,7.6,13.4,48,0.00,,,0.00,WUHU216HW,2013-07-23 18:22:00,
2013-07-23 11:23:00,82.8,60.4,30.03,North,0,5.4,13.4,47,0.00,,,0.00,WUHU216HW,2013-07-23 18:23:00,
2013-07-23 11:24:00,82.8,61.0,30.03,NNW,338,6.9,13.4,48,0.00,,,0.00,WUHU216HW,2013-07-23 18:24:00,
2013-07-23 11:25:00,82.8,60.4,30.03,NW,315,4.9,13.4,47,0.00,,,0.00,WUHU216HW,2013-07-23 18:25:00,
2013-07-23 11:27:00,83.0,60.6,30.03,NNW,338,8.5,11.0,47,0.00,,,0.00,WUHU216HW,2013-07-23 18:27:00,
2013-07-23 11:28:00,83.0,59.4,30.03,North,0,6.0,11.0,45,0.00,,,0.00,WUHU216HW,2013-07-23 18:28:00,
2013-07-23 11:31:00,83.2,60.8,30.03,WNW,293,4.5,11.0,47,0.00,,,0.00,WUHU216HW,2013-07-23 18:31:00,
2013-07-23 11:33:00,83.3,60.3,30.03,NW,315,7.6,11.0,46,0.00,,,0.00,WUHU216HW,2013-07-23 18:33:00,
2013-07-23 11:36:00,83.5,61.1,30.03,NW,315,8.5,10.1,47,0.00,,,0.00,WUHU216HW,2013-07-23 18:36:00,
2013-07-23 11:39:00,83.5,60.5,30.03,NNW,338,7.2,10.1,46,0.00,,,0.00,WUHU216HW,2013-07-23 18:39:00,
2013-07-23 11:41:00,83.5,59.9,30.03,WNW,293,5.6,10.1,45,0.00,,,0.00,WUHU216HW,2013-07-23 18:41:00,
2013-07-23 11:44:00,83.7,60.0,30.03,NNW,338,3.1,9.8,45,0.00,,,0.00,WUHU216HW,2013-07-23 18:44:00,
2013-07-23 11:46:00,83.9,60.8,30.03,NW,315,5.4,9.8,46,0.00,,,0.00,WUHU216HW,2013-07-23 18:46:00,
2013-07-23 11:47:00,83.9,59.6,30.03,NW,315,6.9,10.3,44,0.00,,,0.00,WUHU216HW,2013-07-23 18:47:00,
2013-07-23 11:49:00,83.9,60.8,30.03,West,270,10.1,10.3,46,0.00,,,0.00,WUHU216HW,2013-07-23 18:49:00,
2013-07-23 11:51:00,83.9,60.8,30.03,NNW,338,6.3,10.3,46,0.00,,,0.00,WUHU216HW,2013-07-23 18:51:00,
2013-07-23 11:52:00,84.1,60.4,30.03,WNW,293,11.6,11.6,45,0.00,,,0.00,WUHU216HW,2013-07-23 18:52:00,
2013-07-23 11:56:00,84.1,61.0,30.03,NNW,338,5.8,14.5,46,0.00,,,0.00,WUHU216HW,2013-07-23 18:56:00,
2013-07-23 11:57:00,84.2,61.2,30.03,North,0,7.6,14.5,46,0.00,,,0.00,WUHU216HW,2013-07-23 18:57:00,
2013-07-23 12:01:00,84.4,60.8,30.02,NW,315,4.0,14.5,45,0.00,,,0.00,WUHU216HW,2013-07-23 19:01:00,
2013-07-23 12:02:00,84.4,60.8,30.02,NW,315,3.1,14.5,45,0.00,,,0.00,WUHU216HW,2013-07-23 19:02:00,
2013-07-23 12:03:00,84.6,60.9,30.02,NW,315,6.9,12.8,45,0.00,,,0.00,WUHU216HW,2013-07-23 19:03:00,
2013-07-23 12:06:00,84.6,60.3,30.02,West,270,4.0,12.8,44,0.00,,,0.00,WUHU216HW,2013-07-23 19:06:00,
2013-07-23 12:07:00,84.8,60.4,30.02,West,270,5.6,12.8,44,0.00,,,0.00,WUHU216HW,2013-07-23 19:07:00,
2013-07-23 12:08:00,84.8,60.4,30.02,NW,315,9.2,11.2,44,0.00,,,0.00,WUHU216HW,2013-07-23 19:08:00,
2013-07-23 12:11:00,85.0,59.9,30.02,NW,315,3.4,11.2,43,0.00,,,0.00,WUHU216HW,2013-07-23 19:11:00,
2013-07-23 12:12:00,85.0,59.9,30.02,West,270,4.0,11.2,43,0.00,,,0.00,WUHU216HW,2013-07-23 19:12:00,
2013-07-23 12:14:00,84.8,59.8,30.02,NW,315,7.6,11.2,43,0.00,,,0.00,WUHU216HW,2013-07-23 19:14:00,
2013-07-23 12:17:00,85.1,60.8,30.02,NNW,338,4.0,11.0,44,0.00,,,0.00,WUHU216HW,2013-07-23 19:17:00,
2013-07-23 12:18:00,85.3,61.6,30.02,NW,315,8.9,11.0,45,0.00,,,0.00,WUHU216HW,2013-07-23 19:18:00,
2013-07-23 12:20:00,85.3,59.7,30.02,NW,315,2.5,11.0,42,0.00,,,0.00,WUHU216HW,2013-07-23 19:20:00,
2013-07-23 12:23:00,85.5,59.9,30.02,NNW,338,3.1,11.0,42,0.00,,,0.00,WUHU216HW,2013-07-23 19:23:00,
2013-07-23 12:25:00,85.3,59.7,30.02,West,270,5.1,9.2,42,0.00,,,0.00,WUHU216HW,2013-07-23 19:25:00,
2013-07-23 12:29:00,85.7,61.8,30.01,West,270,7.8,12.1,45,0.00,,,0.00,WUHU216HW,2013-07-23 19:29:00,
2013-07-23 12:30:00,85.7,60.6,30.02,NW,315,8.3,12.1,43,0.00,,,0.00,WUHU216HW,2013-07-23 19:30:00,
2013-07-23 12:31:00,85.7,60.6,30.01,West,270,6.0,12.1,43,0.00,,,0.00,WUHU216HW,2013-07-23 19:31:00,
2013-07-23 12:34:00,85.5,59.9,30.01,NW,315,7.6,12.1,42,0.00,,,0.00,WUHU216HW,2013-07-23 19:34:00,
2013-07-23 12:36:00,85.5,59.9,30.01,NNW,338,9.2,12.1,42,0.00,,,0.00,WUHU216HW,2013-07-23 19:36:00,
2013-07-23 12:37:00,85.3,60.3,30.01,WSW,248,6.9,12.1,43,0.00,,,0.00,WUHU216HW,2013-07-23 19:37:00,
2013-07-23 12:39:00,85.7,61.2,30.01,NW,315,5.4,11.0,44,0.00,,,0.00,WUHU216HW,2013-07-23 19:39:00,
2013-07-23 12:41:00,85.7,61.2,30.01,WNW,293,3.6,11.0,44,0.00,,,0.00,WUHU216HW,2013-07-23 19:41:00,
2013-07-23 12:42:00,85.9,59.5,30.01,NW,315,6.7,11.0,41,0.00,,,0.00,WUHU216HW,2013-07-23 19:42:00,
2013-07-23 12:44:00,86.0,60.3,30.01,West,270,9.6,11.0,42,0.00,,,0.00,WUHU216HW,2013-07-23 19:44:00,
2013-07-23 12:46:00,86.0,59.7,30.01,NW,315,5.4,9.8,41,0.00,,,0.00,WUHU216HW,2013-07-23 19:46:00,
2013-07-23 12:49:00,86.0,59.7,30.01,WNW,293,6.9,9.8,41,0.00,,,0.00,WUHU216HW,2013-07-23 19:49:00,
2013-07-23 12:52:00,86.2,59.9,30.00,NNW,338,2.2,10.5,41,0.00,,,0.00,WUHU216HW,2013-07-23 19:52:00,
2013-07-23 12:54:00,86.6,60.1,30.01,North,0,7.8,10.5,41,0.00,,,0.00,WUHU216HW,2013-07-23 19:54:00,
2013-07-23 12:55:00,86.6,58.8,30.01,WNW,293,12.3,12.3,39,0.00,,,0.00,WUHU216HW,2013-07-23 19:55:00,
2013-07-23 12:57:00,86.4,58.6,30.00,NNW,338,7.6,12.3,39,0.00,,,0.00,WUHU216HW,2013-07-23 19:57:00,
2013-07-23 12:58:00,86.4,58.6,30.00,NW,315,8.7,12.3,39,0.00,,,0.00,WUHU216HW,2013-07-23 19:58:00,
2013-07-23 13:00:00,86.4,60.0,30.00,West,270,5.4,12.3,41,0.00,,,0.00,WUHU216HW,2013-07-23 20:00:00,
2013-07-23 13:01:00,86.4,60.7,30.00,NW,315,6.9,12.3,42,0.00,,,0.00,WUHU216HW,2013-07-23 20:01:00,
2013-07-23 13:02:00,86.4,60.0,30.00,NW,315,5.1,12.3,41,0.00,,,0.00,WUHU216HW,2013-07-23 20:02:00,
2013-07-23 13:03:00,86.2,59.9,30.00,WNW,293,6.9,12.3,41,0.00,,,0.00,WUHU216HW,2013-07-23 20:03:00,
2013-07-23 13:05:00,86.2,60.5,30.00,ENE,68,8.5,13.2,42,0.00,,,0.00,WUHU216HW,2013-07-23 20:05:00,
2013-07-23 13:07:00,86.0,59.7,30.00,NW,315,6.0,13.2,41,0.00,,,0.00,WUHU216HW,2013-07-23 20:07:00,
2013-07-23 13:08:00,86.0,59.7,30.00,NW,315,6.9,13.2,41,0.00,,,0.00,WUHU216HW,2013-07-23 20:08:00,
2013-07-23 13:11:00,85.9,58.1,30.00,NW,315,4.9,13.2,39,0.00,,,0.00,WUHU216HW,2013-07-23 20:11:00,
2013-07-23 13:12:00,85.9,58.9,30.00,SW,225,5.4,13.2,40,0.00,,,0.00,WUHU216HW,2013-07-23 20:12:00,
2013-07-23 13:13:00,86.0,59.7,30.00,NW,315,4.9,13.2,41,0.00,,,0.00,WUHU216HW,2013-07-23 20:13:00,
2013-07-23 13:16:00,86.0,58.2,30.00,NW,315,8.3,12.1,39,0.00,,,0.00,WUHU216HW,2013-07-23 20:16:00,
2013-07-23 13:17:00,86.0,59.7,30.00,WNW,293,6.5,12.1,41,0.00,,,0.00,WUHU216HW,2013-07-23 20:17:00,
2013-07-23 13:18:00,86.2,58.4,30.00,NW,315,5.1,12.1,39,0.00,,,0.00,WUHU216HW,2013-07-23 20:18:00,
2013-07-23 13:22:00,86.4,60.0,30.00,WNW,293,10.1,12.1,41,0.00,,,0.00,WUHU216HW,2013-07-23 20:22:00,
2013-07-23 13:24:00,86.6,60.1,30.00,WSW,248,5.1,10.5,41,0.00,,,0.00,WUHU216HW,2013-07-23 20:24:00,
2013-07-23 13:27:00,86.9,60.5,30.00,WNW,293,6.9,12.8,41,0.00,,,0.00,WUHU216HW,2013-07-23 20:27:00,
2013-07-23 13:28:00,87.1,60.7,30.00,West,270,8.7,12.8,41,0.00,,,0.00,WUHU216HW,2013-07-23 20:28:00,
2013-07-23 13:29:00,87.1,60.7,30.00,WSW,248,6.7,12.8,41,0.00,,,0.00,WUHU216HW,2013-07-23 20:29:00,
2013-07-23 13:33:00,87.3,60.2,30.00,NNW,338,5.4,12.8,40,0.00,,,0.00,WUHU216HW,2013-07-23 20:33:00,
2013-07-23 13:34:00,87.3,60.2,30.00,NNW,338,6.9,12.8,40,0.00,,,0.00,WUHU216HW,2013-07-23 20:34:00,
2013-07-23 13:35:00,87.3,59.4,30.00,NW,315,4.5,12.8,39,0.00,,,0.00,WUHU216HW,2013-07-23 20:35:00,
2013-07-23 13:38:00,87.3,60.2,30.00,WNW,293,11.0,11.4,40,0.00,,,0.00,WUHU216HW,2013-07-23 20:38:00,
2013-07-23 13:39:00,87.5,60.3,29.99,NW,315,6.3,11.2,40,0.00,,,0.00,WUHU216HW,2013-07-23 20:39:00,
2013-07-23 13:41:00,87.5,59.5,30.00,WNW,293,7.2,11.2,39,0.00,,,0.00,WUHU216HW,2013-07-23 20:41:00,
2013-07-23 13:42:00,87.5,58.7,29.99,NW,315,4.7,12.1,38,0.00,,,0.00,WUHU216HW,2013-07-23 20:42:00,
2013-07-23 13:43:00,87.3,59.4,30.00,NW,315,8.5,12.1,39,0.00,,,0.00,WUHU216HW,2013-07-23 20:43:00,
2013-07-23 13:45:00,87.3,59.4,29.99,NW,315,4.3,12.1,39,0.00,,,0.00,WUHU216HW,2013-07-23 20:45:00,
2013-07-23 13:46:00,87.1,58.4,29.99,NW,315,5.4,12.1,38,0.00,,,0.00,WUHU216HW,2013-07-23 20:46:00,
2013-07-23 13:47:00,86.8,58.1,29.99,NNW,338,10.5,12.1,38,0.00,,,0.00,WUHU216HW,2013-07-23 20:47:00,
2013-07-23 13:50:00,86.4,60.0,29.99,WNW,293,6.5,12.1,41,0.00,,,0.00,WUHU216HW,2013-07-23 20:50:00,
2013-07-23 13:53:00,86.6,58.8,29.99,NW,315,8.1,10.7,39,0.00,,,0.00,WUHU216HW,2013-07-23 20:53:00,
2013-07-23 13:55:00,86.6,58.8,29.99,NW,315,6.3,11.4,39,0.00,,,0.00,WUHU216HW,2013-07-23 20:55:00,
2013-07-23 13:56:00,86.8,58.9,29.99,NNW,338,8.7,11.4,39,0.00,,,0.00,WUHU216HW,2013-07-23 20:56:00,
2013-07-23 13:58:00,86.8,60.3,29.99,WNW,293,5.6,11.4,41,0.00,,,0.00,WUHU216HW,2013-07-23 20:58:00,
2013-07-23 14:00:00,86.8,58.9,29.99,NW,315,11.2,11.4,39,0.00,,,0.00,WUHU216HW,2013-07-23 21:00:00,
2013-07-23 14:02:00,86.8,58.1,29.99,NNW,338,9.2,12.8,38,0.00,,,0.00,WUHU216HW,2013-07-23 21:02:00,
2013-07-23 14:03:00,86.8,58.9,29.99,NNW,338,4.5,12.8,39,0.00,,,0.00,WUHU216HW,2013-07-23 21:03:00,
2013-07-23 14:05:00,86.6,58.8,29.99,NW,315,6.7,13.0,39,0.00,,,0.00,WUHU216HW,2013-07-23 21:05:00,
2013-07-23 14:07:00,86.4,58.6,29.99,NW,315,6.7,13.0,39,0.00,,,0.00,WUHU216HW,2013-07-23 21:07:00,
2013-07-23 14:09:00,86.6,58.8,29.99,NW,315,4.7,13.0,39,0.00,,,0.00,WUHU216HW,2013-07-23 21:09:00,
2013-07-23 14:10:00,86.8,58.9,29.98,NW,315,4.5,13.0,39,0.00,,,0.00,WUHU216HW,2013-07-23 21:10:00,
2013-07-23 14:13:00,86.8,58.9,29.98,NNW,338,10.5,13.0,39,0.00,,,0.00,WUHU216HW,2013-07-23 21:13:00,
2013-07-23 14:15:00,86.8,60.3,29.98,West,270,5.4,13.0,41,0.00,,,0.00,WUHU216HW,2013-07-23 21:15:00,
2013-07-23 14:16:00,86.9,60.5,29.98,West,270,11.4,11.6,41,0.00,,,0.00,WUHU216HW,2013-07-23 21:16:00,
2013-07-23 14:18:00,87.3,60.9,29.98,West,270,17.9,17.9,41,0.00,,,0.00,WUHU216HW,2013-07-23 21:18:00,
2013-07-23 14:20:00,87.3,60.2,29.98,West,270,7.6,17.9,40,0.00,,,0.00,WUHU216HW,2013-07-23 21:20:00,
2013-07-23 14:21:00,87.3,60.2,29.98,West,270,14.1,17.9,40,0.00,,,0.00,WUHU216HW,2013-07-23 21:21:00,
2013-07-23 14:24:00,87.3,60.2,29.98,WSW,248,10.1,17.9,40,0.00,,,0.00,WUHU216HW,2013-07-23 21:24:00,
2013-07-23 14:25:00,87.3,60.9,29.98,WSW,248,8.7,17.9,41,0.00,,,0.00,WUHU216HW,2013-07-23 21:25:00,
2013-07-23 14:26:00,87.3,60.9,29.98,West,270,12.1,17.9,41,0.00,,,0.00,WUHU216HW,2013-07-23 21:26:00,
2013-07-23 14:27:00,87.3,60.2,29.98,West,270,7.6,17.9,40,0.00,,,0.00,WUHU216HW,2013-07-23 21:27:00,
2013-07-23 14:30:00,87.1,59.2,29.98,NW,315,7.8,15.0,39,0.00,,,0.00,WUHU216HW,2013-07-23 21:30:00,
2013-07-23 14:32:00,86.9,59.9,29.98,WNW,293,9.2,13.4,40,0.00,,,0.00,WUHU216HW,2013-07-23 21:32:00,
2013-07-23 14:35:00,86.9,59.0,29.98,WNW,293,7.6,13.4,39,0.00,,,0.00,WUHU216HW,2013-07-23 21:35:00,
2013-07-23 14:37:00,87.1,59.2,29.98,NW,315,7.6,13.4,39,0.00,,,0.00,WUHU216HW,2013-07-23 21:37:00,
2013-07-23 14:40:00,87.1,60.0,29.98,WSW,248,5.8,13.4,40,0.00,,,0.00,WUHU216HW,2013-07-23 21:40:00,
2013-07-23 14:42:00,86.9,60.5,29.98,NNE,23,5.6,12.5,41,0.00,,,0.00,WUHU216HW,2013-07-23 21:42:00,
2013-07-23 14:46:00,87.1,60.0,29.98,NW,315,6.3,10.1,40,0.00,,,0.00,WUHU216HW,2013-07-23 21:46:00,
2013-07-23 14:48:00,87.1,60.7,29.98,NW,315,8.5,10.1,41,0.00,,,0.00,WUHU216HW,2013-07-23 21:48:00,
2013-07-23 14:51:00,87.1,60.7,29.98,WSW,248,10.5,11.2,41,0.00,,,0.00,WUHU216HW,2013-07-23 21:51:00,
2013-07-23 14:52:00,87.1,60.7,29.97,NW,315,5.4,11.2,41,0.00,,,0.00,WUHU216HW,2013-07-23 21:52:00,
2013-07-23 14:53:00,87.1,60.7,29.97,West,270,11.2,12.8,41,0.00,,,0.00,WUHU216HW,2013-07-23 21:53:00,
2013-07-23 14:56:00,87.1,60.7,29.97,WNW,293,11.9,12.8,41,0.00,,,0.00,WUHU216HW,2013-07-23 21:56:00,
2013-07-23 14:57:00,87.1,60.0,29.97,West,270,8.3,12.8,40,0.00,,,0.00,WUHU216HW,2013-07-23 21:57:00,
2013-07-23 14:58:00,87.1,59.2,29.97,WSW,248,9.2,12.8,39,0.00,,,0.00,WUHU216HW,2013-07-23 21:58:00,
2013-07-23 14:59:00,87.1,60.0,29.97,NW,315,11.6,12.8,40,0.00,,,0.00,WUHU216HW,2013-07-23 21:59:00,
2013-07-23 15:01:00,86.8,58.9,29.97,NW,315,9.6,12.8,39,0.00,,,0.00,WUHU216HW,2013-07-23 22:01:00,
2013-07-23 15:02:00,86.8,58.9,29.97,WNW,293,8.9,12.5,39,0.00,,,0.00,WUHU216HW,2013-07-23 22:02:00,
2013-07-23 15:03:00,86.8,58.9,29.97,WNW,293,9.8,12.5,39,0.00,,,0.00,WUHU216HW,2013-07-23 22:03:00,
2013-07-23 15:04:00,86.8,58.9,29.97,WNW,293,9.8,12.5,39,0.00,,,0.00,WUHU216HW,2013-07-23 22:04:00,
2013-07-23 15:06:00,86.6,58.8,29.97,NW,315,10.1,12.5,39,0.00,,,0.00,WUHU216HW,2013-07-23 22:06:00,
2013-07-23 15:07:00,86.6,60.1,29.97,WSW,248,7.8,12.5,41,0.00,,,0.00,WUHU216HW,2013-07-23 22:07:00,
2013-07-23 15:09:00,86.8,60.3,29.97,NNW,338,5.4,12.5,41,0.00,,,0.00,WUHU216HW,2013-07-23 22:09:00,
2013-07-23 15:13:00,86.4,58.6,29.97,NW,315,7.6,14.3,39,0.00,,,0.00,WUHU216HW,2013-07-23 22:13:00,
2013-07-23 15:14:00,86.4,58.6,29.97,NW,315,9.2,14.3,39,0.00,,,0.00,WUHU216HW,2013-07-23 22:14:00,
2013-07-23 15:15:00,86.4,58.6,29.97,West,270,8.7,14.3,39,0.00,,,0.00,WUHU216HW,2013-07-23 22:15:00,
2013-07-23 15:18:00,86.4,60.0,29.97,West,270,4.0,14.3,41,0.00,,,0.00,WUHU216HW,2013-07-23 22:18:00,
2013-07-23 15:19:00,86.6,60.1,29.97,North,0,5.4,14.3,41,0.00,,,0.00,WUHU216HW,2013-07-23 22:19:00,
2013-07-23 15:20:00,86.6,58.8,29.97,WNW,293,9.2,14.3,39,0.00,,,0.00,WUHU216HW,2013-07-23 22:20:00,
2013-07-23 15:23:00,86.2,58.4,29.97,NNW,338,11.2,14.3,39,0.00,,,0.00,WUHU216HW,2013-07-23 22:23:00,
2013-07-23 15:25:00,86.2,58.4,29.97,NNW,338,8.5,14.3,39,0.00,,,0.00,WUHU216HW,2013-07-23 22:25:00,
2013-07-23 15:29:00,85.9,58.1,29.97,West,270,11.4,14.3,39,0.00,,,0.00,WUHU216HW,2013-07-23 22:29:00,
2013-07-23 15:30:00,85.9,58.9,29.97,NNW,338,7.6,14.3,40,0.00,,,0.00,WUHU216HW,2013-07-23 22:30:00,
2013-07-23 15:31:00,85.7,58.7,29.97,WNW,293,9.2,14.3,40,0.00,,,0.00,WUHU216HW,2013-07-23 22:31:00,
2013-07-23 15:34:00,85.7,58.7,29.97,NW,315,6.3,13.0,40,0.00,,,0.00,WUHU216HW,2013-07-23 22:34:00,
2013-07-23 15:36:00,85.5,58.6,29.97,North,0,11.4,13.0,40,0.00,,,0.00,WUHU216HW,2013-07-23 22:36:00,
2013-07-23 15:37:00,85.5,58.6,29.97,NNW,338,6.9,13.0,40,0.00,,,0.00,WUHU216HW,2013-07-23 22:37:00,
2013-07-23 15:39:00,85.5,57.8,29.97,NW,315,6.3,13.0,39,0.00,,,0.00,WUHU216HW,2013-07-23 22:39:00,
2013-07-23 15:41:00,85.3,58.4,29.96,NW,315,7.6,13.0,40,0.00,,,0.00,WUHU216HW,2013-07-23 22:41:00,
2013-07-23 15:43:00,85.3,58.4,29.96,West,270,6.9,11.4,40,0.00,,,0.00,WUHU216HW,2013-07-23 22:43:00,
2013-07-23 15:45:00,85.3,59.1,29.97,North,0,6.3,9.2,41,0.00,,,0.00,WUHU216HW,2013-07-23 22:45:00,
2013-07-23 15:47:00,85.3,58.4,29.97,NW,315,9.6,9.6,40,0.00,,,0.00,WUHU216HW,2013-07-23 22:47:00,
2013-07-23 15:48:00,85.1,58.2,29.97,NW,315,7.8,9.6,40,0.00,,,0.00,WUHU216HW,2013-07-23 22:48:00,
2013-07-23 15:51:00,85.0,58.7,29.97,WNW,293,8.9,9.6,41,0.00,,,0.00,WUHU216HW,2013-07-23 22:51:00,
2013-07-23 15:52:00,85.0,58.1,29.97,NNW,338,11.2,11.2,40,0.00,,,0.00,WUHU216HW,2013-07-23 22:52:00,
2013-07-23 15:53:00,85.0,58.1,29.97,North,0,6.5,11.2,40,0.00,,,0.00,WUHU216HW,2013-07-23 22:53:00,
2013-07-23 15:54:00,85.0,58.7,29.97,NNE,23,5.1,11.2,41,0.00,,,0.00,WUHU216HW,2013-07-23 22:54:00,
2013-07-23 15:56:00,84.8,59.1,29.97,East,90,10.1,11.2,42,0.00,,,0.00,WUHU216HW,2013-07-23 22:56:00,
2013-07-23 15:58:00,84.8,60.4,29.97,ESE,113,12.3,12.3,44,0.00,,,0.00,WUHU216HW,2013-07-23 22:58:00,
2013-07-23 15:59:00,85.0,61.2,29.97,ESE,113,10.5,12.5,45,0.00,,,0.00,WUHU216HW,2013-07-23 22:59:00,
2013-07-23 16:02:00,84.8,62.3,29.98,SSE,158,16.3,20.1,47,0.00,,,0.00,WUHU216HW,2013-07-23 23:02:00,
2013-07-23 16:03:00,84.6,63.5,29.98,ESE,113,15.9,23.0,49,0.00,,,0.00,WUHU216HW,2013-07-23 23:03:00,
2013-07-23 16:04:00,84.4,63.3,29.98,SE,135,18.6,23.0,49,0.00,,,0.00,WUHU216HW,2013-07-23 23:04:00,
2013-07-23 16:07:00,83.5,63.6,29.97,ESE,113,16.6,23.0,51,0.00,,,0.00,WUHU216HW,2013-07-23 23:07:00,
2013-07-23 16:09:00,83.0,63.0,29.97,SE,135,11.6,23.0,51,0.00,,,0.00,WUHU216HW,2013-07-23 23:09:00,
2013-07-23 16:10:00,82.8,63.4,29.98,ENE,68,17.4,23.0,52,0.00,,,0.00,WUHU216HW,2013-07-23 23:10:00,
2013-07-23 16:12:00,82.3,63.4,29.98,SE,135,17.4,23.0,53,0.00,,,0.00,WUHU216HW,2013-07-23 23:12:00,
2013-07-23 16:14:00,81.5,63.7,29.97,ESE,113,18.8,22.6,55,0.00,,,0.00,WUHU216HW,2013-07-23 23:14:00,
2013-07-23 16:15:00,81.2,63.4,29.97,SSE,158,18.3,23.5,55,0.00,,,0.00,WUHU216HW,2013-07-23 23:15:00,
2013-07-23 16:18:00,80.5,63.3,29.97,SE,135,17.7,23.5,56,0.00,,,0.00,WUHU216HW,2013-07-23 23:18:00,
2013-07-23 16:20:00,80.1,63.5,29.98,SE,135,13.4,23.5,57,0.00,,,0.00,WUHU216HW,2013-07-23 23:20:00,
2013-07-23 16:23:00,79.2,63.2,29.97,SE,135,12.3,23.5,58,0.00,,,0.00,WUHU216HW,2013-07-23 23:23:00,
2013-07-23 16:24:00,79.0,64.1,29.97,South,180,15.0,23.5,60,0.00,,,0.00,WUHU216HW,2013-07-23 23:24:00,
2013-07-23 16:26:00,78.8,63.9,29.97,SSW,203,13.0,22.8,60,0.00,,,0.00,WUHU216HW,2013-07-23 23:26:00,
2013-07-23 16:28:00,78.3,63.4,29.97,SSE,158,9.2,19.5,60,0.00,,,0.00,WUHU216HW,2013-07-23 23:28:00,
2013-07-23 16:29:00,78.1,63.6,29.97,South,180,9.8,19.5,61,0.00,,,0.00,WUHU216HW,2013-07-23 23:29:00,
2013-07-23 16:32:00,77.8,63.7,29.97,SSW,203,11.2,19.5,62,0.00,,,0.00,WUHU216HW,2013-07-23 23:32:00,
2013-07-23 16:33:00,77.9,63.9,29.97,South,180,10.5,19.5,62,0.00,,,0.00,WUHU216HW,2013-07-23 23:33:00,
2013-07-23 16:35:00,77.9,64.4,29.97,SSW,203,11.9,19.5,63,0.01,,,0.00,WUHU216HW,2013-07-23 23:35:00,
2013-07-23 16:38:00,77.6,65.4,29.97,SSW,203,15.0,15.7,66,0.04,,,0.04,WUHU216HW,2013-07-23 23:38:00,
2013-07-23 16:39:00,77.6,65.4,29.97,SSW,203,15.0,15.7,66,0.04,,,0.04,WUHU216HW,2013-07-23 23:39:00,
2013-07-23 16:40:00,77.4,65.2,29.97,SW,225,11.9,15.7,66,0.04,,,0.04,WUHU216HW,2013-07-23 23:40:00,
2013-07-23 16:44:00,76.7,65.3,29.97,South,180,12.8,16.3,68,0.04,,,0.04,WUHU216HW,2013-07-23 23:44:00,
2013-07-23 16:45:00,76.5,65.2,29.97,SSW,203,11.6,16.3,68,0.04,,,0.04,WUHU216HW,2013-07-23 23:45:00,
2013-07-23 16:49:00,76.1,65.7,29.97,SSW,203,9.2,16.3,70,0.04,,,0.04,WUHU216HW,2013-07-23 23:49:00,
2013-07-23 16:50:00,76.0,65.5,29.96,SW,225,9.4,16.3,70,0.04,,,0.04,WUHU216HW,2013-07-23 23:50:00,
2013-07-23 16:51:00,76.0,65.5,29.96,SW,225,9.4,16.3,70,0.04,,,0.04,WUHU216HW,2013-07-23 23:51:00,
2013-07-23 16:55:00,75.8,65.3,29.96,WSW,248,4.7,12.8,70,0.04,,,0.04,WUHU216HW,2013-07-23 23:55:00,
2013-07-23 16:56:00,75.8,65.3,29.96,SW,225,11.4,12.8,70,0.04,,,0.04,WUHU216HW,2013-07-23 23:56:00,
2013-07-23 17:00:00,75.8,64.4,29.96,WSW,248,5.4,12.8,68,0.04,,,0.04,WUHU216HW,2013-07-24 00:00:00,
2013-07-23 17:01:00,75.8,64.4,29.96,WSW,248,5.4,12.8,68,0.04,,,0.04,WUHU216HW,2013-07-24 00:01:00,
2013-07-23 17:02:00,76.0,64.6,29.96,WSW,248,5.8,11.4,68,0.04,,,0.04,WUHU216HW,2013-07-24 00:02:00,
2013-07-23 17:06:00,76.1,64.8,29.96,WSW,248,6.3,12.1,68,0.04,,,0.04,WUHU216HW,2013-07-24 00:06:00,
2013-07-23 17:07:00,76.3,64.5,29.96,WSW,248,10.1,12.1,67,0.04,,,0.04,WUHU216HW,2013-07-24 00:07:00,
2013-07-23 17:11:00,76.3,65.0,29.96,WSW,248,9.8,12.1,68,0.04,,,0.04,WUHU216HW,2013-07-24 00:11:00,
2013-07-23 17:12:00,76.3,65.0,29.96,WSW,248,8.5,12.1,68,0.04,,,0.04,WUHU216HW,2013-07-24 00:12:00,
2013-07-23 17:16:00,76.5,64.7,29.96,WSW,248,9.2,11.4,67,0.04,,,0.04,WUHU216HW,2013-07-24 00:16:00,
2013-07-23 17:17:00,76.5,64.7,29.96,SW,225,9.2,11.4,67,0.04,,,0.04,WUHU216HW,2013-07-24 00:17:00,
2013-07-23 17:18:00,76.7,64.9,29.96,SW,225,6.7,11.4,67,0.04,,,0.04,WUHU216HW,2013-07-24 00:18:00,
2013-07-23 17:21:00,76.7,64.4,29.96,WSW,248,12.8,15.2,66,0.04,,,0.04,WUHU216HW,2013-07-24 00:21:00,
2013-07-23 17:22:00,76.7,64.4,29.95,WSW,248,11.6,15.2,66,0.04,,,0.04,WUHU216HW,2013-07-24 00:22:00,
2013-07-23 17:23:00,76.7,64.0,29.95,WSW,248,11.0,15.2,65,0.04,,,0.04,WUHU216HW,2013-07-24 00:23:00,
2013-07-23 17:24:00,76.7,64.4,29.96,WSW,248,12.5,15.2,66,0.04,,,0.04,WUHU216HW,2013-07-24 00:24:00,
2013-07-23 17:27:00,76.9,64.2,29.95,SW,225,8.9,15.2,65,0.04,,,0.04,WUHU216HW,2013-07-24 00:27:00,
2013-07-23 17:28:00,76.9,64.2,29.95,WSW,248,13.0,15.2,65,0.04,,,0.04,WUHU216HW,2013-07-24 00:28:00,
2013-07-23 17:29:00,76.9,64.2,29.95,WSW,248,15.2,15.2,65,0.04,,,0.04,WUHU216HW,2013-07-24 00:29:00,
2013-07-23 17:30:00,76.9,63.7,29.95,WSW,248,8.1,15.2,64,0.04,,,0.04,WUHU216HW,2013-07-24 00:30:00,
2013-07-23 17:33:00,76.9,63.7,29.95,WNW,293,15.0,15.2,64,0.02,,,0.04,WUHU216HW,2013-07-24 00:33:00,
2013-07-23 17:34:00,76.9,63.3,29.95,WSW,248,10.5,15.2,63,0.02,,,0.04,WUHU216HW,2013-07-24 00:34:00,
2013-07-23 17:36:00,76.9,63.3,29.95,WSW,248,10.3,15.2,63,0.00,,,0.04,WUHU216HW,2013-07-24 00:36:00,
2013-07-23 17:39:00,77.0,63.5,29.95,West,270,14.3,15.0,63,0.00,,,0.04,WUHU216HW,2013-07-24 00:39:00,
2013-07-23 17:41:00,77.0,63.0,29.95,WNW,293,10.5,15.0,62,0.00,,,0.04,WUHU216HW,2013-07-24 00:41:00,
2013-07-23 17:42:00,77.0,63.0,29.95,WSW,248,10.5,15.0,62,0.00,,,0.04,WUHU216HW,2013-07-24 00:42:00,
2013-07-23 17:44:00,77.0,62.6,29.95,WSW,248,11.4,14.8,61,0.00,,,0.04,WUHU216HW,2013-07-24 00:44:00,
2013-07-23 17:46:00,77.2,62.7,29.96,WSW,248,10.5,14.8,61,0.00,,,0.04,WUHU216HW,2013-07-24 00:46:00,
2013-07-23 17:47:00,77.2,62.7,29.96,SW,225,8.5,14.8,61,0.00,,,0.04,WUHU216HW,2013-07-24 00:47:00,
2013-07-23 17:50:00,77.2,62.7,29.95,WSW,248,6.9,14.8,61,0.00,,,0.04,WUHU216HW,2013-07-24 00:50:00,
2013-07-23 17:51:00,77.2,62.3,29.96,WSW,248,8.9,14.3,60,0.00,,,0.04,WUHU216HW,2013-07-24 00:51:00,
2013-07-23 17:52:00,77.2,62.7,29.96,WNW,293,6.9,14.3,61,0.00,,,0.04,WUHU216HW,2013-07-24 00:52:00,
2013-07-23 17:55:00,77.4,62.9,29.96,WSW,248,6.5,11.4,61,0.00,,,0.04,WUHU216HW,2013-07-24 00:55:00,
2013-07-23 17:56:00,77.4,62.5,29.96,West,270,11.4,12.5,60,0.00,,,0.04,WUHU216HW,2013-07-24 00:56:00,
2013-07-23 17:57:00,77.4,62.5,29.96,West,270,11.4,12.5,60,0.00,,,0.04,WUHU216HW,2013-07-24 00:57:00,
2013-07-23 18:01:00,77.4,62.5,29.96,West,270,9.8,12.5,60,0.00,,,0.04,WUHU216HW,2013-07-24 01:01:00,
2013-07-23 18:02:00,77.6,61.7,29.96,WSW,248,13.2,13.6,58,0.00,,,0.04,WUHU216HW,2013-07-24 01:02:00,
2013-07-23 18:03:00,77.6,61.7,29.96,West,270,10.1,13.6,58,0.00,,,0.04,WUHU216HW,2013-07-24 01:03:00,
2013-07-23 18:06:00,77.8,61.8,29.96,WSW,248,7.8,13.6,58,0.00,,,0.04,WUHU216HW,2013-07-24 01:06:00,
2013-07-23 18:08:00,77.8,61.8,29.96,West,270,4.7,13.6,58,0.00,,,0.04,WUHU216HW,2013-07-24 01:08:00,
2013-07-23 18:11:00,77.8,61.8,29.96,NW,315,8.3,13.6,58,0.00,,,0.04,WUHU216HW,2013-07-24 01:11:00,
2013-07-23 18:12:00,77.9,62.0,29.96,WSW,248,8.7,13.6,58,0.00,,,0.04,WUHU216HW,2013-07-24 01:12:00,
2013-07-23 18:13:00,77.9,62.0,29.96,West,270,6.9,12.3,58,0.00,,,0.04,WUHU216HW,2013-07-24 01:13:00,
2013-07-23 18:16:00,77.9,62.0,29.95,West,270,4.9,12.3,58,0.00,,,0.04,WUHU216HW,2013-07-24 01:16:00,
2013-07-23 18:18:00,77.9,62.0,29.96,West,270,6.3,12.3,58,0.00,,,0.04,WUHU216HW,2013-07-24 01:18:00,
2013-07-23 18:19:00,77.9,62.0,29.95,West,270,6.0,12.3,58,0.00,,,0.04,WUHU216HW,2013-07-24 01:19:00,
2013-07-23 18:21:00,77.8,62.3,29.95,WNW,293,6.0,11.4,59,0.00,,,0.04,WUHU216HW,2013-07-24 01:21:00,
2013-07-23 18:23:00,77.8,61.8,29.95,West,270,6.3,9.8,58,0.00,,,0.04,WUHU216HW,2013-07-24 01:23:00,
2013-07-23 18:24:00,77.8,62.3,29.96,West,270,8.5,9.8,59,0.00,,,0.04,WUHU216HW,2013-07-24 01:24:00,
2013-07-23 18:26:00,77.8,62.3,29.96,West,270,4.9,9.2,59,0.00,,,0.04,WUHU216HW,2013-07-24 01:26:00,
2013-07-23 18:29:00,77.6,62.1,29.96,West,270,5.6,9.2,59,0.00,,,0.04,WUHU216HW,2013-07-24 01:29:00,
2013-07-23 18:30:00,77.6,62.1,29.96,WNW,293,7.4,10.3,59,0.00,,,0.04,WUHU216HW,2013-07-24 01:30:00,
2013-07-23 18:32:00,77.4,61.9,29.96,WSW,248,4.0,10.3,59,0.00,,,0.04,WUHU216HW,2013-07-24 01:32:00,
2013-07-23 18:34:00,77.4,61.9,29.96,WSW,248,9.6,10.5,59,0.00,,,0.04,WUHU216HW,2013-07-24 01:34:00,
2013-07-23 18:35:00,77.4,61.9,29.96,WSW,248,8.5,10.5,59,0.00,,,0.04,WUHU216HW,2013-07-24 01:35:00,
2013-07-23 18:37:00,77.4,61.9,29.96,WSW,248,5.8,10.5,59,0.00,,,0.04,WUHU216HW,2013-07-24 01:37:00,
2013-07-23 18:39:00,77.4,61.9,29.97,West,270,8.1,11.4,59,0.00,,,0.04,WUHU216HW,2013-07-24 01:39:00,
2013-07-23 18:40:00,77.4,61.9,29.97,WSW,248,12.1,12.1,59,0.00,,,0.04,WUHU216HW,2013-07-24 01:40:00,
2013-07-23 18:43:00,77.4,61.9,29.97,SW,225,10.3,12.1,59,0.00,,,0.04,WUHU216HW,2013-07-24 01:43:00,
2013-07-23 18:45:00,77.4,61.9,29.97,WSW,248,6.9,12.1,59,0.00,,,0.04,WUHU216HW,2013-07-24 01:45:00,
2013-07-23 18:47:00,77.4,61.9,29.97,WSW,248,6.9,12.1,59,0.00,,,0.04,WUHU216HW,2013-07-24 01:47:00,
2013-07-23 18:48:00,77.4,61.9,29.97,West,270,7.6,12.1,59,0.00,,,0.04,WUHU216HW,2013-07-24 01:48:00,
2013-07-23 18:50:00,77.4,61.9,29.96,WNW,293,9.8,11.0,59,0.00,,,0.04,WUHU216HW,2013-07-24 01:50:00,
2013-07-23 18:52:00,77.4,61.9,29.96,SW,225,6.3,11.0,59,0.00,,,0.04,WUHU216HW,2013-07-24 01:52:00,
2013-07-23 18:53:00,77.4,61.9,29.96,WSW,248,7.4,11.0,59,0.00,,,0.04,WUHU216HW,2013-07-24 01:53:00,
2013-07-23 18:56:00,77.4,61.9,29.96,WSW,248,8.1,11.0,59,0.00,,,0.04,WUHU216HW,2013-07-24 01:56:00,
2013-07-23 18:58:00,77.4,61.9,29.96,WSW,248,6.9,11.0,59,0.00,,,0.04,WUHU216HW,2013-07-24 01:58:00,
2013-07-23 18:59:00,77.4,61.9,29.96,West,270,7.6,10.5,59,0.00,,,0.04,WUHU216HW,2013-07-24 01:59:00,
2013-07-23 19:01:00,77.4,61.9,29.96,WSW,248,6.7,10.7,59,0.00,,,0.04,WUHU216HW,2013-07-24 02:01:00,
2013-07-23 19:04:00,77.4,61.5,29.96,West,270,7.4,10.7,58,0.00,,,0.04,WUHU216HW,2013-07-24 02:04:00,
2013-07-23 19:05:00,77.4,61.5,29.96,West,270,9.8,10.7,58,0.00,,,0.04,WUHU216HW,2013-07-24 02:05:00,
2013-07-23 19:06:00,77.4,61.5,29.96,West,270,11.6,11.6,58,0.00,,,0.04,WUHU216HW,2013-07-24 02:06:00,
2013-07-23 19:07:00,77.4,61.5,29.96,West,270,8.5,11.6,58,0.00,,,0.04,WUHU216HW,2013-07-24 02:07:00,
2013-07-23 19:09:00,77.4,61.5,29.96,WSW,248,4.7,11.6,58,0.00,,,0.04,WUHU216HW,2013-07-24 02:09:00,
2013-07-23 19:10:00,77.4,61.5,29.96,West,270,7.2,11.6,58,0.00,,,0.04,WUHU216HW,2013-07-24 02:10:00,
2013-07-23 19:11:00,77.4,61.9,29.96,West,270,7.2,11.6,59,0.00,,,0.04,WUHU216HW,2013-07-24 02:11:00,
2013-07-23 19:13:00,77.4,61.5,29.96,WSW,248,7.2,11.6,58,0.00,,,0.04,WUHU216HW,2013-07-24 02:13:00,
2013-07-23 19:15:00,77.2,61.3,29.97,WSW,248,8.1,11.6,58,0.00,,,0.04,WUHU216HW,2013-07-24 02:15:00,
2013-07-23 19:17:00,77.2,61.7,29.97,WSW,248,4.9,8.5,59,0.00,,,0.04,WUHU216HW,2013-07-24 02:17:00,
2013-07-23 19:18:00,77.2,61.3,29.97,West,270,9.4,9.4,58,0.00,,,0.04,WUHU216HW,2013-07-24 02:18:00,
2013-07-23 19:20:00,77.0,61.1,29.97,WSW,248,7.6,9.4,58,0.00,,,0.04,WUHU216HW,2013-07-24 02:20:00,
2013-07-23 19:21:00,77.0,61.1,29.97,WSW,248,7.6,9.4,58,0.00,,,0.04,WUHU216HW,2013-07-24 02:21:00,
2013-07-23 19:22:00,77.0,61.1,29.97,West,270,9.2,9.4,58,0.00,,,0.04,WUHU216HW,2013-07-24 02:22:00,
2013-07-23 19:23:00,77.0,61.1,29.97,West,270,10.3,10.3,58,0.00,,,0.04,WUHU216HW,2013-07-24 02:23:00,
2013-07-23 19:26:00,77.0,61.1,29.97,West,270,4.9,10.7,58,0.00,,,0.04,WUHU216HW,2013-07-24 02:26:00,
2013-07-23 19:27:00,77.0,61.1,29.97,West,270,7.6,10.7,58,0.00,,,0.04,WUHU216HW,2013-07-24 02:27:00,
2013-07-23 19:28:00,77.0,61.1,29.97,WSW,248,7.2,10.7,58,0.00,,,0.04,WUHU216HW,2013-07-24 02:28:00,
2013-07-23 19:31:00,77.0,61.1,29.97,WNW,293,6.0,10.7,58,0.00,,,0.04,WUHU216HW,2013-07-24 02:31:00,
2013-07-23 19:32:00,77.0,61.1,29.97,West,270,3.6,10.7,58,0.00,,,0.04,WUHU216HW,2013-07-24 02:32:00,
2013-07-23 19:33:00,76.9,60.9,29.97,WSW,248,6.9,10.7,58,0.00,,,0.04,WUHU216HW,2013-07-24 02:33:00,
2013-07-23 19:36:00,76.9,61.5,29.97,West,270,4.7,9.4,59,0.00,,,0.04,WUHU216HW,2013-07-24 02:36:00,
2013-07-23 19:37:00,76.9,60.9,29.97,WSW,248,3.8,9.4,58,0.00,,,0.04,WUHU216HW,2013-07-24 02:37:00,
2013-07-23 19:39:00,76.7,60.8,29.97,West,270,3.6,9.4,58,0.00,,,0.04,WUHU216HW,2013-07-24 02:39:00,
2013-07-23 19:42:00,76.7,60.8,29.98,North,0,1.1,9.4,58,0.00,,,0.04,WUHU216HW,2013-07-24 02:42:00,
2013-07-23 19:44:00,76.7,61.3,29.98,ENE,68,2.7,5.1,59,0.00,,,0.04,WUHU216HW,2013-07-24 02:44:00,
2013-07-23 19:47:00,76.7,62.2,29.98,NE,45,4.5,5.4,61,0.00,,,0.04,WUHU216HW,2013-07-24 02:47:00,
2013-07-23 19:48:00,76.7,62.6,29.98,ENE,68,5.6,5.6,62,0.00,,,0.04,WUHU216HW,2013-07-24 02:48:00,
2013-07-23 19:49:00,76.5,62.9,29.98,ENE,68,3.8,5.6,63,0.00,,,0.04,WUHU216HW,2013-07-24 02:49:00,
2013-07-23 19:51:00,76.3,63.2,29.98,East,90,1.3,5.6,64,0.00,,,0.04,WUHU216HW,2013-07-24 02:51:00,
2013-07-23 19:52:00,76.1,63.1,29.98,ENE,68,1.1,5.6,64,0.00,,,0.04,WUHU216HW,2013-07-24 02:52:00,
2013-07-23 19:53:00,76.1,63.1,29.98,ENE,68,0.0,5.6,64,0.00,,,0.04,WUHU216HW,2013-07-24 02:53:00,
2013-07-23 19:55:00,76.0,63.4,29.98,NNW,338,0.4,5.6,65,0.00,,,0.04,WUHU216HW,2013-07-24 02:55:00,
2013-07-23 19:56:00,76.0,63.7,29.98,North,0,0.7,5.6,66,0.00,,,0.04,WUHU216HW,2013-07-24 02:56:00,
2013-07-23 19:58:00,76.0,63.7,29.99,NE,45,4.0,5.6,66,0.00,,,0.04,WUHU216HW,2013-07-24 02:58:00,
2013-07-23 19:59:00,76.0,63.7,29.99,ENE,68,3.8,4.3,66,0.00,,,0.04,WUHU216HW,2013-07-24 02:59:00,
2013-07-23 20:00:00,75.8,63.6,29.99,NE,45,2.7,4.3,66,0.00,,,0.04,WUHU216HW,2013-07-24 03:00:00,
2013-07-23 20:01:00,75.6,63.8,29.99,NE,45,2.5,4.3,67,0.00,,,0.04,WUHU216HW,2013-07-24 03:01:00,
2013-07-23 20:03:00,75.6,63.8,29.99,ENE,68,4.0,4.7,67,0.00,,,0.04,WUHU216HW,2013-07-24 03:03:00,
2013-07-23 20:04:00,75.6,63.8,29.99,NE,45,3.6,4.7,67,0.00,,,0.04,WUHU216HW,2013-07-24 03:04:00,
2013-07-23 20:06:00,75.4,64.1,29.99,NNE,23,5.4,5.4,68,0.00,,,0.04,WUHU216HW,2013-07-24 03:06:00,
2013-07-23 20:08:00,75.4,64.5,29.99,ENE,68,4.9,5.4,69,0.00,,,0.04,WUHU216HW,2013-07-24 03:08:00,
2013-07-23 20:10:00,75.2,64.4,29.99,ENE,68,3.4,5.4,69,0.00,,,0.04,WUHU216HW,2013-07-24 03:10:00,
2013-07-23 20:11:00,75.2,64.4,29.99,ENE,68,2.7,5.4,69,0.00,,,0.04,WUHU216HW,2013-07-24 03:11:00,
2013-07-23 20:13:00,75.2,64.4,29.99,East,90,1.1,5.4,69,0.00,,,0.04,WUHU216HW,2013-07-24 03:13:00,
2013-07-23 20:16:00,75.1,64.2,29.99,NE,45,1.6,5.4,69,0.00,,,0.04,WUHU216HW,2013-07-24 03:16:00,
2013-07-23 20:18:00,75.1,64.2,29.99,NE,45,0.9,4.5,69,0.00,,,0.04,WUHU216HW,2013-07-24 03:18:00,
2013-07-23 20:21:00,74.9,64.1,29.99,ESE,113,2.0,2.0,69,0.00,,,0.04,WUHU216HW,2013-07-24 03:21:00,
2013-07-23 20:22:00,74.9,64.1,29.99,ESE,113,1.1,2.0,69,0.00,,,0.04,WUHU216HW,2013-07-24 03:22:00,
2013-07-23 20:23:00,74.9,64.1,29.99,SE,135,0.4,2.0,69,0.00,,,0.04,WUHU216HW,2013-07-24 03:23:00,
2013-07-23 20:26:00,74.9,64.1,29.99,SSE,158,0.9,2.0,69,0.00,,,0.04,WUHU216HW,2013-07-24 03:26:00,
2013-07-23 20:27:00,74.9,64.1,29.99,SSE,158,0.9,2.0,69,0.00,,,0.04,WUHU216HW,2013-07-24 03:27:00,
2013-07-23 20:28:00,74.9,64.1,30.00,SSE,158,1.1,2.0,69,0.00,,,0.04,WUHU216HW,2013-07-24 03:28:00,
2013-07-23 20:29:00,74.7,63.9,30.00,South,180,1.6,2.0,69,0.00,,,0.04,WUHU216HW,2013-07-24 03:29:00,
2013-07-23 20:32:00,74.7,64.4,30.00,South,180,1.8,2.5,70,0.00,,,0.04,WUHU216HW,2013-07-24 03:32:00,
2013-07-23 20:33:00,74.5,64.2,30.00,South,180,1.3,2.5,70,0.00,,,0.04,WUHU216HW,2013-07-24 03:33:00,
2013-07-23 20:34:00,74.5,64.2,30.00,SSE,158,0.9,2.5,70,0.00,,,0.04,WUHU216HW,2013-07-24 03:34:00,
2013-07-23 20:38:00,74.5,64.2,30.00,South,180,0.7,2.5,70,0.00,,,0.04,WUHU216HW,2013-07-24 03:38:00,
2013-07-23 20:39:00,74.5,64.2,30.00,South,180,1.1,2.5,70,0.00,,,0.04,WUHU216HW,2013-07-24 03:39:00,
2013-07-23 20:43:00,74.5,64.2,30.00,SSE,158,0.0,1.6,70,0.00,,,0.04,WUHU216HW,2013-07-24 03:43:00,
2013-07-23 20:44:00,74.5,64.2,30.00,SSE,158,0.0,1.6,70,0.00,,,0.04,WUHU216HW,2013-07-24 03:44:00,
2013-07-23 20:49:00,74.3,64.4,30.01,ENE,68,1.8,3.4,71,0.00,,,0.04,WUHU216HW,2013-07-24 03:49:00,
2013-07-23 20:50:00,74.3,64.4,30.01,ENE,68,2.2,3.4,71,0.00,,,0.04,WUHU216HW,2013-07-24 03:50:00,
2013-07-23 20:54:00,74.3,64.4,30.01,ENE,68,1.8,3.4,71,0.00,,,0.04,WUHU216HW,2013-07-24 03:54:00,
2013-07-23 20:56:00,74.3,64.4,30.01,ENE,68,1.1,3.4,71,0.00,,,0.04,WUHU216HW,2013-07-24 03:56:00,
2013-07-23 21:00:00,74.3,64.4,30.01,ENE,68,0.0,3.1,71,0.00,,,0.04,WUHU216HW,2013-07-24 04:00:00,
2013-07-23 21:01:00,74.3,64.4,30.01,ENE,68,0.0,3.1,71,0.00,,,0.04,WUHU216HW,2013-07-24 04:01:00,
2013-07-23 21:06:00,74.3,64.8,30.01,ENE,68,0.9,1.1,72,0.00,,,0.04,WUHU216HW,2013-07-24 04:06:00,
2013-07-23 21:07:00,74.3,64.8,30.01,ENE,68,1.1,1.1,72,0.00,,,0.04,WUHU216HW,2013-07-24 04:07:00,
2013-07-23 21:11:00,74.3,64.8,30.01,NE,45,1.8,2.2,72,0.00,,,0.04,WUHU216HW,2013-07-24 04:11:00,
2013-07-23 21:12:00,74.2,64.6,30.01,NE,45,0.2,2.2,72,0.00,,,0.04,WUHU216HW,2013-07-24 04:12:00,
2013-07-23 21:16:00,74.2,65.0,30.01,NE,45,0.0,2.2,73,0.00,,,0.04,WUHU216HW,2013-07-24 04:16:00,
2013-07-23 21:17:00,74.2,65.0,30.01,NE,45,0.0,2.2,73,0.00,,,0.04,WUHU216HW,2013-07-24 04:17:00,
2013-07-23 21:21:00,73.8,64.6,30.02,NE,45,0.0,1.8,73,0.00,,,0.04,WUHU216HW,2013-07-24 04:21:00,
2013-07-23 21:22:00,73.8,64.6,30.02,NE,45,0.0,0.9,73,0.00,,,0.04,WUHU216HW,2013-07-24 04:22:00,
2013-07-23 21:26:00,73.8,64.6,30.02,North,0,0.4,0.7,73,0.00,,,0.04,WUHU216HW,2013-07-24 04:26:00,
2013-07-23 21:27:00,73.8,64.6,30.02,North,0,0.9,0.9,73,0.00,,,0.04,WUHU216HW,2013-07-24 04:27:00,
2013-07-23 21:31:00,73.8,65.1,30.02,North,0,0.0,1.8,74,0.00,,,0.04,WUHU216HW,2013-07-24 04:31:00,
2013-07-23 21:32:00,73.8,65.1,30.02,North,0,0.0,1.8,74,0.00,,,0.04,WUHU216HW,2013-07-24 04:32:00,
2013-07-23 21:36:00,73.6,65.3,30.02,North,0,0.4,1.8,75,0.00,,,0.04,WUHU216HW,2013-07-24 04:36:00,
2013-07-23 21:37:00,73.6,65.3,30.02,NNW,338,0.9,1.8,75,0.00,,,0.04,WUHU216HW,2013-07-24 04:37:00,
2013-07-23 21:41:00,73.4,65.4,30.03,NNE,23,9.2,9.8,76,0.00,,,0.04,WUHU216HW,2013-07-24 04:41:00,
2013-07-23 21:42:00,73.4,65.4,30.03,North,0,8.7,9.8,76,0.00,,,0.04,WUHU216HW,2013-07-24 04:42:00,
2013-07-23 21:43:00,73.4,65.4,30.04,ENE,68,8.1,9.8,76,0.00,,,0.04,WUHU216HW,2013-07-24 04:43:00,
2013-07-23 21:46:00,73.3,64.9,30.04,NE,45,16.3,16.3,75,0.00,,,0.04,WUHU216HW,2013-07-24 04:46:00,
2013-07-23 21:47:00,73.3,64.9,30.04,NE,45,16.3,16.3,75,0.00,,,0.04,WUHU216HW,2013-07-24 04:47:00,
2013-07-23 21:48:00,73.1,64.7,30.04,NE,45,17.9,19.7,75,0.00,,,0.04,WUHU216HW,2013-07-24 04:48:00,
2013-07-23 21:51:00,72.9,64.2,30.04,NNE,23,8.3,19.7,74,0.00,,,0.04,WUHU216HW,2013-07-24 04:51:00,
2013-07-23 21:52:00,72.7,64.0,30.04,NNE,23,9.8,19.7,74,0.00,,,0.04,WUHU216HW,2013-07-24 04:52:00,
2013-07-23 21:53:00,72.7,64.0,30.04,ENE,68,12.1,19.7,74,0.00,,,0.04,WUHU216HW,2013-07-24 04:53:00,
2013-07-23 21:56:00,72.5,63.8,30.05,NNE,23,10.3,19.7,74,0.00,,,0.04,WUHU216HW,2013-07-24 04:56:00,
2013-07-23 21:58:00,72.4,63.3,30.05,NE,45,9.8,17.9,73,0.00,,,0.04,WUHU216HW,2013-07-24 04:58:00,
2013-07-23 22:01:00,72.4,63.3,30.04,NE,45,4.7,13.4,73,0.00,,,0.04,WUHU216HW,2013-07-24 05:01:00,
2013-07-23 22:03:00,72.4,63.3,30.04,NE,45,6.3,13.4,73,0.00,,,0.04,WUHU216HW,2013-07-24 05:03:00,
2013-07-23 22:07:00,72.2,63.1,30.05,NNW,338,5.4,9.8,73,0.00,,,0.04,WUHU216HW,2013-07-24 05:07:00,
2013-07-23 22:08:00,72.2,63.1,30.05,NNE,23,1.8,9.8,73,0.00,,,0.04,WUHU216HW,2013-07-24 05:08:00,
2013-07-23 22:09:00,72.0,62.9,30.05,North,0,5.4,7.2,73,0.00,,,0.04,WUHU216HW,2013-07-24 05:09:00,
2013-07-23 22:12:00,72.0,62.9,30.05,NE,45,1.1,6.9,73,0.00,,,0.04,WUHU216HW,2013-07-24 05:12:00,
2013-07-23 22:13:00,72.0,62.5,30.05,NNE,23,0.0,6.7,72,0.00,,,0.04,WUHU216HW,2013-07-24 05:13:00,
2013-07-23 22:14:00,72.0,62.5,30.05,NNE,23,0.0,6.7,72,0.00,,,0.04,WUHU216HW,2013-07-24 05:14:00,
2013-07-23 22:17:00,72.0,62.5,30.05,WSW,248,0.4,6.0,72,0.00,,,0.04,WUHU216HW,2013-07-24 05:17:00,
2013-07-23 22:18:00,72.0,62.5,30.05,West,270,0.0,6.0,72,0.00,,,0.04,WUHU216HW,2013-07-24 05:18:00,
2013-07-23 22:19:00,72.0,62.5,30.05,West,270,0.0,6.0,72,0.00,,,0.04,WUHU216HW,2013-07-24 05:19:00,
2013-07-23 22:22:00,72.0,62.5,30.05,SW,225,2.7,2.7,72,0.00,,,0.04,WUHU216HW,2013-07-24 05:22:00,
2013-07-23 22:23:00,72.0,62.5,30.05,SSW,203,2.7,3.1,72,0.00,,,0.04,WUHU216HW,2013-07-24 05:23:00,
2013-07-23 22:24:00,72.0,62.5,30.05,SSW,203,3.1,3.1,72,0.00,,,0.04,WUHU216HW,2013-07-24 05:24:00,
2013-07-23 22:28:00,72.0,62.9,30.05,SW,225,2.5,3.6,73,0.00,,,0.04,WUHU216HW,2013-07-24 05:28:00,
2013-07-23 22:29:00,71.8,62.7,30.05,SW,225,4.9,4.9,73,0.00,,,0.04,WUHU216HW,2013-07-24 05:29:00,
2013-07-23 22:33:00,71.6,62.6,30.05,SW,225,2.9,4.9,73,0.00,,,0.04,WUHU216HW,2013-07-24 05:33:00,
2013-07-23 22:34:00,71.8,62.7,30.05,SSW,203,4.7,4.9,73,0.00,,,0.04,WUHU216HW,2013-07-24 05:34:00,
2013-07-23 22:38:00,71.6,62.6,30.04,SSW,203,2.9,6.0,73,0.00,,,0.04,WUHU216HW,2013-07-24 05:38:00,
2013-07-23 22:39:00,71.5,62.4,30.04,SSW,203,3.6,6.0,73,0.00,,,0.04,WUHU216HW,2013-07-24 05:39:00,
2013-07-23 22:40:00,71.5,62.4,30.04,SSW,203,3.4,6.0,73,0.00,,,0.04,WUHU216HW,2013-07-24 05:40:00,
2013-07-23 22:43:00,71.5,62.7,30.04,SSW,203,2.7,6.0,74,0.00,,,0.04,WUHU216HW,2013-07-24 05:43:00,
2013-07-23 22:44:00,71.3,62.6,30.03,SW,225,3.1,6.0,74,0.00,,,0.04,WUHU216HW,2013-07-24 05:44:00,
2013-07-23 22:45:00,71.5,62.7,30.04,SW,225,3.1,5.6,74,0.00,,,0.04,WUHU216HW,2013-07-24 05:45:00,
2013-07-23 22:48:00,71.3,62.6,30.03,SW,225,2.9,4.5,74,0.00,,,0.04,WUHU216HW,2013-07-24 05:48:00,
2013-07-23 22:49:00,71.3,62.6,30.03,SW,225,2.0,4.5,74,0.00,,,0.04,WUHU216HW,2013-07-24 05:49:00,
2013-07-23 22:50:00,71.3,62.6,30.03,WSW,248,1.8,4.0,74,0.00,,,0.04,WUHU216HW,2013-07-24 05:50:00,
2013-07-23 22:53:00,71.3,62.6,30.03,SW,225,1.1,3.4,74,0.00,,,0.04,WUHU216HW,2013-07-24 05:53:00,
2013-07-23 22:54:00,71.3,62.6,30.03,WSW,248,1.1,3.4,74,0.00,,,0.04,WUHU216HW,2013-07-24 05:54:00,
2013-07-23 22:55:00,71.3,62.6,30.02,WSW,248,2.0,3.4,74,0.00,,,0.04,WUHU216HW,2013-07-24 05:55:00,
2013-07-23 22:58:00,71.3,62.6,30.02,SW,225,1.8,3.6,74,0.00,,,0.04,WUHU216HW,2013-07-24 05:58:00,
2013-07-23 22:59:00,71.3,62.6,30.02,SW,225,1.1,3.6,74,0.00,,,0.04,WUHU216HW,2013-07-24 05:59:00,
2013-07-23 23:00:00,71.3,62.6,30.02,West,270,1.1,3.6,74,0.00,,,0.04,WUHU216HW,2013-07-24 06:00:00,
2013-07-23 23:03:00,71.3,62.6,30.02,WNW,293,1.6,3.6,74,0.00,,,0.04,WUHU216HW,2013-07-24 06:03:00,
2013-07-23 23:04:00,71.3,62.6,30.02,NW,315,1.8,3.6,74,0.00,,,0.04,WUHU216HW,2013-07-24 06:04:00,
2013-07-23 23:05:00,71.3,62.6,30.02,NNW,338,2.0,3.6,74,0.00,,,0.04,WUHU216HW,2013-07-24 06:05:00,
2013-07-23 23:06:00,71.3,62.6,30.02,NNW,338,2.5,3.6,74,0.00,,,0.04,WUHU216HW,2013-07-24 06:06:00,
2013-07-23 23:08:00,71.3,62.6,30.02,NNW,338,2.0,2.7,74,0.00,,,0.04,WUHU216HW,2013-07-24 06:08:00,
2013-07-23 23:09:00,71.1,62.4,30.02,NW,315,1.1,2.7,74,0.00,,,0.04,WUHU216HW,2013-07-24 06:09:00,
2013-07-23 23:10:00,71.1,62.4,30.02,West,270,2.2,2.7,74,0.00,,,0.04,WUHU216HW,2013-07-24 06:10:00,
2013-07-23 23:11:00,71.1,62.4,30.02,West,270,2.2,2.7,74,0.00,,,0.04,WUHU216HW,2013-07-24 06:11:00,
2013-07-23 23:13:00,71.1,62.4,30.02,WSW,248,2.7,3.4,74,0.00,,,0.04,WUHU216HW,2013-07-24 06:13:00,
2013-07-23 23:15:00,71.1,62.4,30.02,West,270,3.4,3.4,74,0.00,,,0.04,WUHU216HW,2013-07-24 06:15:00,
2013-07-23 23:16:00,71.1,62.4,30.02,WNW,293,2.0,3.4,74,0.00,,,0.04,WUHU216HW,2013-07-24 06:16:00,
2013-07-23 23:19:00,71.1,62.4,30.02,West,270,0.4,3.4,74,0.00,,,0.04,WUHU216HW,2013-07-24 06:19:00,
2013-07-23 23:20:00,71.1,62.4,30.02,West,270,0.0,3.4,74,0.00,,,0.04,WUHU216HW,2013-07-24 06:20:00,
2013-07-23 23:22:00,71.1,62.4,30.03,East,90,2.2,3.4,74,0.00,,,0.04,WUHU216HW,2013-07-24 06:22:00,
2013-07-23 23:24:00,71.1,62.4,30.02,East,90,3.4,3.4,74,0.00,,,0.04,WUHU216HW,2013-07-24 06:24:00,
2013-07-23 23:25:00,71.1,62.4,30.03,East,90,2.0,3.4,74,0.00,,,0.04,WUHU216HW,2013-07-24 06:25:00,
2013-07-23 23:26:00,71.1,62.4,30.03,East,90,1.8,3.4,74,0.00,,,0.04,WUHU216HW,2013-07-24 06:26:00,
2013-07-23 23:27:00,71.1,62.4,30.03,ESE,113,2.5,3.4,74,0.00,,,0.04,WUHU216HW,2013-07-24 06:27:00,
2013-07-23 23:29:00,71.1,62.4,30.03,ESE,113,1.6,3.4,74,0.00,,,0.04,WUHU216HW,2013-07-24 06:29:00,
2013-07-23 23:30:00,71.1,62.4,30.03,ESE,113,0.4,3.4,74,0.00,,,0.04,WUHU216HW,2013-07-24 06:30:00,
2013-07-23 23:31:00,71.1,62.4,30.03,ESE,113,1.8,3.4,74,0.00,,,0.04,WUHU216HW,2013-07-24 06:31:00,
2013-07-23 23:32:00,71.1,62.7,30.03,ESE,113,1.3,3.4,75,0.00,,,0.04,WUHU216HW,2013-07-24 06:32:00,
2013-07-23 23:34:00,71.1,62.7,30.03,ESE,113,0.7,2.5,75,0.00,,,0.04,WUHU216HW,2013-07-24 06:34:00,
2013-07-23 23:35:00,71.1,62.7,30.02,ESE,113,0.0,2.5,75,0.00,,,0.04,WUHU216HW,2013-07-24 06:35:00,
2013-07-23 23:37:00,71.1,62.7,30.02,ESE,113,0.0,2.5,75,0.00,,,0.04,WUHU216HW,2013-07-24 06:37:00,
2013-07-23 23:38:00,71.1,62.7,30.02,ESE,113,0.0,2.5,75,0.00,,,0.04,WUHU216HW,2013-07-24 06:38:00,
2013-07-23 23:39:00,71.3,62.9,30.02,ESE,113,0.0,1.8,75,0.00,,,0.04,WUHU216HW,2013-07-24 06:39:00,
2013-07-23 23:40:00,71.1,62.7,30.02,ESE,113,0.0,1.8,75,0.00,,,0.04,WUHU216HW,2013-07-24 06:40:00,
2013-07-23 23:43:00,71.1,62.7,30.02,ESE,113,0.4,1.6,75,0.00,,,0.04,WUHU216HW,2013-07-24 06:43:00,
2013-07-23 23:45:00,71.1,62.7,30.02,ESE,113,0.0,0.9,75,0.00,,,0.04,WUHU216HW,2013-07-24 06:45:00,
2013-07-23 23:46:00,71.1,62.7,30.02,ESE,113,0.0,0.9,75,0.00,,,0.04,WUHU216HW,2013-07-24 06:46:00,
2013-07-23 23:48:00,71.1,62.7,30.02,ESE,113,1.1,1.1,75,0.00,,,0.04,WUHU216HW,2013-07-24 06:48:00,
2013-07-23 23:50:00,70.9,62.6,30.02,ENE,68,1.6,1.6,75,0.00,,,0.04,WUHU216HW,2013-07-24 06:50:00,
2013-07-23 23:51:00,70.9,62.6,30.02,NE,45,2.2,2.2,75,0.00,,,0.04,WUHU216HW,2013-07-24 06:51:00,
2013-07-23 23:53:00,70.9,62.6,30.02,NE,45,2.9,2.9,75,0.00,,,0.04,WUHU216HW,2013-07-24 06:53:00,
2013-07-23 23:55:00,70.9,62.6,30.02,NE,45,2.5,4.0,75,0.00,,,0.04,WUHU216HW,2013-07-24 06:55:00,
2013-07-23 23:56:00,70.9,62.6,30.02,NE,45,5.6,5.6,75,0.00,,,0.04,WUHU216HW,2013-07-24 06:56:00,
2013-07-23 23:58:00,70.9,62.6,30.02,ENE,68,4.0,5.6,75,0.00,,,0.04,WUHU216HW,2013-07-24 06:58:00,
2013-07-23 23:59:00,70.9,62.6,30.02,ENE,68,3.6,5.6,75,0.00,,,0.04,WUHU216HW,2013-07-24 06:59:00,